<- Previous Day | Today | Next Day ->

All Data for 13 August 2020

 

Time A - D Temp A - D Dew Point A - D Humidity A - D Pressure A - D Wind A - D Wind Dir Gust A - D Rain Rate A - D Rain Total
00:00 19.4 16.6 84 1011.1 1.6 SW 3.1 0.0 0.0
00:01 19.4 16.6 84 1010.8 3.1 NE 3.1 0.0 0.0
00:02 19.4 16.8 85 1010.9 5.4 ESE 5.4 0.0 0.0
00:03 19.4 16.8 85 1011.2 5.4 SW 5.4 0.0 0.0
00:04 19.4 16.8 85 1011.1 3.1 N 5.4 0.0 0.0
00:05 19.4 16.8 85 1011.2 1.6 S 5.4 0.0 0.0
00:06 19.4 16.8 85 1011.0 3.1 N 5.4 0.0 0.0
00:07 19.4 16.8 85 1011.2 2.2 S 5.4 0.0 0.0
00:08 19.4 16.8 85 1010.9 3.1 SW 5.4 0.0 0.0
00:09 19.4 16.8 85 1011.0 3.1 SW 5.4 0.0 0.0
00:10 19.4 16.8 85 1011.1 2.2 S 5.4 0.0 0.0
00:11 19.4 16.8 85 1011.2 3.1 SE 5.4 0.0 0.0
00:12 19.4 16.8 85 1010.9 3.1 E 5.4 0.0 0.0
00:13 19.4 16.8 85 1011.0 3.1 S 5.4 0.0 0.0
00:14 19.4 16.8 85 1011.0 4.5 S 4.5 0.0 0.0
00:15 19.4 16.8 85 1011.1 3.1 S 4.5 0.0 0.0
00:16 19.4 16.8 85 1011.1 3.1 NE 4.5 0.0 0.0
00:17 19.4 16.8 85 1011.3 2.2 S 4.5 0.0 0.0
00:18 19.4 16.8 85 1011.1 2.2 S 4.5 0.0 0.0
00:19 19.4 17.0 86 1011.2 3.8 NE 4.5 0.0 0.0
00:20 19.4 17.0 86 1011.1 1.6 SW 4.5 0.0 0.0
00:21 19.4 17.0 86 1011.1 1.6 S 4.5 0.0 0.0
00:22 19.4 17.0 86 1011.1 1.6 S 4.5 0.0 0.0
00:23 19.4 17.0 86 1011.0 1.6 S 4.5 0.0 0.0
00:24 19.4 17.0 86 1011.0 1.6 S 4.5 0.0 0.0
00:25 19.4 17.0 86 1011.0 2.2 NE 3.8 0.0 0.0
00:26 19.4 17.0 86 1011.2 2.2 E 3.8 0.0 0.0
00:27 19.4 17.0 86 1011.0 1.6 E 3.8 0.0 0.0
00:28 19.3 16.9 86 1011.1 1.6 NE 3.8 0.0 0.0
00:29 19.3 16.9 86 1011.1 2.2 SE 3.8 0.0 0.0
00:30 19.3 16.9 86 1011.1 2.2 E 2.2 0.0 0.0
00:31 19.3 16.9 86 1011.0 1.6 NNW 2.2 0.0 0.0
00:32 19.3 16.9 86 1011.1 1.6 N 2.2 0.0 0.0
00:33 19.3 16.9 86 1011.0 2.2 S 2.2 0.0 0.0
00:34 19.3 16.9 86 1011.0 2.2 S 2.2 0.0 0.0
00:35 19.3 16.9 86 1011.2 2.2 N 2.2 0.0 0.0
00:36 19.3 16.9 86 1011.2 3.1 N 3.1 0.0 0.0
00:37 19.3 16.9 86 1011.1 2.2 SE 3.1 0.0 0.0
00:38 19.3 16.9 86 1011.1 2.2 N 3.1 0.0 0.0
00:39 19.3 16.9 86 1011.1 1.6 W 3.1 0.0 0.0
00:40 19.3 16.9 86 1011.0 2.2 NE 3.1 0.0 0.0
00:41 19.3 16.9 86 1011.3 1.6 S 3.1 0.0 0.0
00:42 19.3 16.9 86 1011.3 2.2 S 3.1 0.0 0.0
00:43 19.3 16.9 86 1011.0 1.6 NE 3.1 0.0 0.0
00:44 19.3 16.9 86 1011.1 2.2 NE 3.1 0.0 0.0
00:45 19.2 16.8 86 1010.9 2.2 NW 3.1 0.0 0.0
00:46 19.2 16.8 86 1010.9 2.2 N 2.2 0.0 0.0
00:47 19.2 16.8 86 1011.0 1.6 SW 2.2 0.0 0.0
00:48 19.2 16.8 86 1011.3 1.6 E 2.2 0.0 0.0
00:49 19.2 17.0 87 1010.9 3.1 S 3.1 0.0 0.0
00:50 19.2 17.0 87 1010.9 3.1 S 3.1 0.0 0.0
00:51 19.2 17.0 87 1010.8 3.8 S 3.8 0.0 0.0
00:52 19.2 17.0 87 1011.1 3.8 NNW 3.8 0.0 0.0
00:53 19.2 17.0 87 1011.1 1.6 E 3.8 0.0 0.0
00:54 19.2 17.0 87 1010.9 2.2 SE 3.8 0.0 0.0
00:55 19.2 17.0 87 1010.9 2.2 S 3.8 0.0 0.0
00:56 19.2 17.0 87 1011.1 5.4 SE 5.4 0.0 0.0
00:57 19.2 17.0 87 1011.1 3.8 S 5.4 0.0 0.0
00:58 19.2 17.0 87 1011.0 3.1 N 5.4 0.0 0.0
00:59 19.2 17.0 87 1011.0 2.2 NE 5.4 0.0 0.0
01:00 19.2 17.0 87 1010.9 2.2 E 5.4 0.0 0.0
01:01 19.2 17.0 87 1011.0 2.2 E 5.4 0.0 0.0
01:02 19.2 17.0 87 1011.1 2.2 E 5.4 0.0 0.0
01:03 19.2 17.0 87 1011.0 2.2 E 5.4 0.0 0.0
01:04 19.2 17.0 87 1010.9 2.2 E 5.4 0.0 0.0
01:05 19.2 17.0 87 1011.0 2.2 E 5.4 0.0 0.0
01:06 19.2 17.0 87 1011.0 2.2 E 5.4 0.0 0.0
01:07 19.2 17.0 87 1011.0 3.8 NE 3.8 0.0 0.0
01:08 19.2 17.0 87 1010.9 3.8 NE 3.8 0.0 0.0
01:09 19.2 17.0 87 1011.0 3.1 NE 3.8 0.0 0.0
01:10 19.2 17.0 87 1011.1 1.6 NE 3.8 0.0 0.0
01:11 19.2 17.0 87 1011.0 1.6 NE 3.8 0.0 0.0
01:12 19.2 17.0 87 1011.0 1.6 S 3.8 0.0 0.0
01:13 19.2 17.0 87 1011.0 1.6 NE 3.8 0.0 0.0
01:14 19.2 17.0 87 1011.0 2.2 NE 3.8 0.0 0.0
01:15 19.2 17.0 87 1010.9 2.2 E 3.8 0.0 0.0
01:16 19.2 17.0 87 1010.9 3.1 NE 3.8 0.0 0.0
01:17 19.2 17.0 87 1010.8 0.7 NE 3.8 0.0 0.0
01:18 19.2 17.0 87 1010.8 0.7 NE 3.8 0.0 0.0
01:19 19.2 17.0 87 1010.8 2.2 E 3.1 0.0 0.0
01:20 19.2 17.0 87 1011.0 2.2 NE 3.1 0.0 0.0
01:21 19.2 17.0 87 1010.8 2.2 NE 3.1 0.0 0.0
01:22 19.2 17.0 87 1010.7 2.2 NE 3.1 0.0 0.0
01:23 19.2 17.0 87 1011.0 1.6 NE 3.1 0.0 0.0
01:24 19.2 17.0 87 1010.7 0.7 NE 3.1 0.0 0.0
01:25 19.2 17.0 87 1010.7 0.7 E 3.1 0.0 0.0
01:26 19.2 17.0 87 1010.7 1.6 E 3.1 0.0 0.0
01:27 19.2 17.0 87 1010.7 2.2 NE 2.2 0.0 0.0
01:28 19.1 16.9 87 1010.6 1.6 NE 2.2 0.0 0.0
01:29 19.1 16.9 87 1010.5 1.6 NE 2.2 0.0 0.0
01:30 19.1 16.9 87 1010.5 1.6 N 2.2 0.0 0.0
01:31 19.1 16.9 87 1010.6 1.6 N 2.2 0.0 0.0
01:32 19.1 16.9 87 1010.8 1.6 NNW 2.2 0.0 0.0
01:33 19.1 16.9 87 1010.6 3.1 E 3.1 0.0 0.0
01:34 19.1 16.9 87 1010.8 3.1 E 3.1 0.0 0.0
01:35 19.1 16.9 87 1010.8 3.1 E 3.1 0.0 0.0
01:36 19.1 16.9 87 1010.8 3.1 NE 3.1 0.0 0.0
01:37 19.1 16.9 87 1010.7 3.1 NE 3.1 0.0 0.0
01:38 19.1 16.9 87 1010.8 2.2 NE 3.1 0.0 0.0
01:39 19.1 16.9 87 1010.7 3.8 N 3.8 0.0 0.0
01:40 19.1 16.9 87 1010.7 3.8 N 3.8 0.0 0.0
01:41 19.0 16.8 87 1010.7 2.2 SW 3.8 0.0 0.0
01:42 19.0 16.8 87 1010.8 2.2 NNW 3.8 0.0 0.0
01:43 19.0 16.8 87 1011.0 3.1 NE 3.8 0.0 0.0
01:44 19.0 16.8 87 1010.9 3.1 S 3.8 0.0 0.0
01:45 19.0 16.8 87 1010.9 1.6 NNW 3.8 0.0 0.0
01:46 19.0 16.8 87 1010.9 1.6 NNW 3.8 0.0 0.0
01:47 18.9 16.7 87 1010.7 2.2 SW 3.8 0.0 0.0
01:48 18.9 16.7 87 1010.6 3.1 NE 3.8 0.0 0.0
01:49 18.9 16.7 87 1010.8 3.1 S 3.8 0.0 0.0
01:50 18.9 16.7 87 1010.7 3.1 NE 3.8 0.0 0.0
01:51 18.9 16.7 87 1010.7 2.2 WNW 3.1 0.0 0.0
01:52 18.9 16.7 87 1010.8 3.1 NNW 3.1 0.0 0.0
01:53 18.9 16.7 87 1010.8 1.6 S 3.1 0.0 0.0
01:54 18.8 16.6 87 1010.7 3.1 NE 3.1 0.0 0.0
01:55 18.8 16.6 87 1010.8 1.6 SW 3.1 0.0 0.0
01:56 18.8 16.6 87 1010.8 1.6 SW 3.1 0.0 0.0
01:57 18.8 16.6 87 1010.7 3.8 N 3.8 0.0 0.0
01:58 18.8 16.6 87 1010.5 2.2 S 3.8 0.0 0.0
01:59 18.8 16.6 87 1010.4 2.2 E 3.8 0.0 0.0
02:00 18.8 16.6 87 1010.6 2.2 NE 3.8 0.0 0.0
02:01 18.7 16.5 87 1010.6 2.2 S 3.8 0.0 0.0
02:02 18.7 16.5 87 1010.7 2.2 NE 3.8 0.0 0.0
02:03 18.7 16.5 87 1010.6 2.2 S 3.8 0.0 0.0
02:04 18.7 16.5 87 1010.6 2.2 E 3.8 0.0 0.0
02:05 18.7 16.5 87 1010.6 3.1 NNW 3.8 0.0 0.0
02:06 18.7 16.5 87 1010.6 2.2 E 3.8 0.0 0.0
02:07 18.7 16.5 87 1010.6 1.6 N 3.8 0.0 0.0
02:08 18.7 16.5 87 1010.7 1.6 NW 3.1 0.0 0.0
02:09 18.7 16.5 87 1010.6 1.6 W 3.1 0.0 0.0
02:10 18.7 16.5 87 1010.6 1.6 SE 3.1 0.0 0.0
02:11 18.7 16.5 87 1010.7 2.2 NE 3.1 0.0 0.0
02:12 18.7 16.5 87 1010.8 1.6 N 3.1 0.0 0.0
02:13 18.6 16.4 87 1010.4 1.6 N 3.1 0.0 0.0
02:14 18.6 16.4 87 1010.4 1.6 N 3.1 0.0 0.0
02:15 18.6 16.4 87 1010.5 1.6 SW 3.1 0.0 0.0
02:16 18.6 16.4 87 1010.6 1.6 SE 2.2 0.0 0.0
02:17 18.6 16.4 87 1010.2 2.2 SE 2.2 0.0 0.0
02:18 18.6 16.4 87 1010.6 2.2 SW 2.2 0.0 0.0
02:19 18.6 16.4 87 1010.3 1.6 S 2.2 0.0 0.0
02:20 18.6 16.4 87 1010.4 1.6 NNW 2.2 0.8 0.1
02:21 18.5 16.3 87 1010.6 0.0 N 2.2 0.8 0.1
02:22 18.5 16.3 87 1010.5 0.0 NE 2.2 0.8 0.1
02:23 18.5 16.3 87 1010.4 0.0 NE 2.2 0.8 0.1
02:24 18.5 16.3 87 1010.3 3.1 N 3.1 0.8 0.1
02:25 18.5 16.3 87 1010.5 2.2 N 3.1 0.0 0.1
02:26 18.5 16.3 87 1010.4 1.6 NW 3.1 0.0 0.1
02:27 18.5 16.3 87 1010.6 2.2 E 3.1 0.0 0.1
02:28 18.5 16.3 87 1010.4 2.2 NE 3.1 0.0 0.1
02:29 18.5 16.3 87 1010.3 2.2 NE 3.1 0.0 0.1
02:30 18.5 16.3 87 1010.2 3.1 E 3.1 0.0 0.1
02:31 18.5 16.3 87 1010.3 2.2 NE 3.1 0.0 0.1
02:32 18.5 16.3 87 1010.6 2.2 NE 3.1 0.0 0.1
02:33 18.5 16.3 87 1010.5 1.6 N 3.1 0.0 0.1
02:34 18.5 16.3 87 1010.6 1.6 NE 3.1 0.0 0.1
02:35 18.5 16.3 87 1010.8 2.2 E 3.1 0.0 0.1
02:36 18.6 16.4 87 1010.7 3.1 NE 3.1 0.0 0.1
02:37 18.6 16.4 87 1010.8 4.5 E 4.5 0.0 0.1
02:38 18.6 16.4 87 1010.6 4.5 NE 4.5 0.0 0.1
02:39 18.6 16.4 87 1010.7 4.5 NE 4.5 0.0 0.1
02:40 18.6 16.4 87 1010.8 3.8 NE 4.5 0.0 0.1
02:41 18.6 16.4 87 1010.8 4.5 E 4.5 0.0 0.1
02:42 18.6 16.4 87 1010.8 4.5 E 4.5 0.0 0.1
02:43 18.6 16.4 87 1010.8 6.0 NE 6.0 0.0 0.1
02:44 18.6 16.4 87 1010.9 4.5 NE 6.0 0.0 0.1
02:45 18.6 16.4 87 1010.8 5.4 NE 6.0 0.0 0.1
02:46 18.6 16.4 87 1011.0 5.4 NE 6.0 0.0 0.1
02:47 18.5 16.3 87 1011.0 6.9 E 6.9 0.0 0.1
02:48 18.5 16.3 87 1011.1 3.1 ENE 6.9 0.0 0.1
02:49 18.5 16.3 87 1010.9 7.6 NE 7.6 0.0 0.1
02:50 18.5 16.3 87 1010.8 7.6 NE 7.6 0.0 0.1
02:51 18.5 16.3 87 1010.9 5.4 NE 7.6 0.0 0.1
02:52 18.5 16.3 87 1010.8 5.4 NE 7.6 0.0 0.1
02:53 18.5 16.3 87 1010.8 5.4 E 7.6 0.0 0.1
02:54 18.5 16.3 87 1010.8 3.1 E 7.6 0.8 0.1
02:55 18.5 16.3 87 1010.8 2.2 NNW 7.6 0.8 0.1
02:56 18.5 16.3 87 1010.7 4.5 NE 7.6 1.5 0.2
02:57 18.5 16.5 88 1010.9 6.0 NE 7.6 1.5 0.2
02:58 18.5 16.5 88 1011.0 4.5 E 7.6 1.5 0.2
02:59 18.5 16.5 88 1010.7 6.9 E 7.6 0.8 0.2
03:00 18.5 16.5 88 1010.9 6.9 E 7.6 0.8 0.2
03:01 18.5 16.5 88 1010.7 6.9 E 6.9 0.0 0.2
03:02 18.5 16.5 88 1010.9 6.9 E 6.9 0.0 0.2
03:03 18.5 16.5 88 1010.9 6.9 E 6.9 0.0 0.2
03:04 18.5 16.5 88 1010.9 6.9 E 6.9 0.0 0.2
03:05 18.5 16.5 88 1010.8 6.9 E 6.9 0.0 0.2
03:06 18.5 16.3 87 1010.8 5.4 NE 6.9 0.0 0.3
03:07 18.5 16.3 87 1010.8 5.4 NE 6.9 0.8 0.3
03:08 18.5 16.3 87 1011.0 5.4 NE 6.9 0.8 0.3
03:09 18.4 16.2 87 1010.9 5.4 NE 6.9 0.8 0.3
03:10 18.4 16.2 87 1010.9 5.4 NE 6.9 0.8 0.3
03:11 18.4 16.2 87 1010.8 2.2 W 6.9 0.8 0.3
03:12 18.4 16.2 87 1010.9 4.5 NE 6.9 0.0 0.3
03:13 18.4 16.2 87 1010.7 4.5 NE 6.9 0.0 0.3
03:14 18.3 16.1 87 1010.9 3.8 E 6.9 0.0 0.3
03:15 18.3 16.1 87 1010.9 4.5 SW 6.9 0.0 0.3
03:16 18.3 16.1 87 1010.7 4.5 SW 6.9 0.0 0.3
03:17 18.3 16.1 87 1010.6 3.1 S 5.4 0.0 0.3
03:18 18.3 16.1 87 1010.6 3.8 SW 5.4 0.0 0.3
03:19 18.3 16.1 87 1010.6 3.1 SW 5.4 0.0 0.3
03:20 18.3 16.1 87 1010.8 3.1 SW 4.5 0.0 0.3
03:21 18.2 16.0 87 1010.8 4.5 NE 4.5 0.0 0.3
03:22 18.2 16.0 87 1010.9 2.2 E 4.5 0.0 0.3
03:23 18.2 16.0 87 1010.8 2.2 E 4.5 0.0 0.3
03:24 18.2 16.0 87 1010.7 0.7 NW 4.5 0.0 0.3
03:25 18.2 16.0 87 1010.9 0.7 NW 4.5 0.0 0.3
03:26 18.2 16.0 87 1010.8 1.6 NE 4.5 0.0 0.3
03:27 18.2 16.0 87 1010.5 2.2 E 4.5 0.0 0.3
03:28 18.2 16.0 87 1010.9 2.2 NE 4.5 0.0 0.3
03:29 18.2 16.0 87 1010.8 1.6 E 4.5 0.0 0.3
03:30 18.2 16.0 87 1010.6 2.2 NNW 4.5 0.0 0.3
03:31 18.1 15.9 87 1010.8 1.6 NE 4.5 0.0 0.3
03:32 18.1 15.9 87 1010.6 1.6 NE 2.2 0.0 0.3
03:33 18.1 15.9 87 1010.7 3.1 E 3.1 0.0 0.3
03:34 18.1 15.9 87 1010.7 5.4 W 5.4 0.0 0.3
03:35 18.1 15.9 87 1011.0 5.4 E 5.4 0.0 0.3
03:36 18.1 15.9 87 1010.9 4.5 NE 5.4 0.0 0.3
03:37 18.1 15.9 87 1010.7 4.5 NE 5.4 0.0 0.3
03:38 18.1 15.9 87 1010.7 4.5 NE 5.4 0.0 0.3
03:39 18.1 15.9 87 1010.7 3.1 N 5.4 0.0 0.3
03:40 18.1 15.9 87 1010.6 6.0 ENE 6.0 0.0 0.3
03:41 18.1 15.9 87 1010.7 6.0 ENE 6.0 0.0 0.3
03:42 18.1 15.9 87 1010.7 4.5 E 6.0 0.0 0.3
03:43 18.1 15.9 87 1010.6 3.1 NNW 6.0 0.0 0.3
03:44 18.1 15.9 87 1010.6 3.1 NNW 6.0 0.0 0.3
03:45 18.1 15.9 87 1010.6 3.1 NNW 6.0 0.0 0.3
03:46 18.0 15.8 87 1010.5 3.1 N 6.0 0.0 0.3
03:47 18.0 15.8 87 1010.7 3.1 N 6.0 0.0 0.3
03:48 18.0 15.8 87 1010.7 6.9 ENE 6.9 0.0 0.3
03:49 18.0 15.8 87 1010.7 6.9 E 6.9 0.0 0.3
03:50 18.0 15.8 87 1010.7 6.9 E 6.9 0.0 0.3
03:51 18.0 15.8 87 1010.6 5.4 NE 6.9 0.0 0.3
03:52 18.0 15.8 87 1010.9 6.0 NE 6.9 0.0 0.3
03:53 18.0 15.8 87 1010.6 6.0 NE 6.9 0.0 0.3
03:54 18.0 15.8 87 1010.6 6.0 NE 6.9 0.0 0.3
03:55 18.0 15.8 87 1010.8 5.4 NE 6.9 0.0 0.3
03:56 18.0 15.8 87 1010.7 6.0 SE 6.9 0.0 0.3
03:57 18.0 15.8 87 1010.5 6.0 SE 6.9 0.0 0.3
03:58 18.0 15.8 87 1010.7 6.0 SE 6.9 0.0 0.3
03:59 18.0 15.8 87 1010.5 6.0 SE 6.9 0.0 0.3
04:00 17.9 15.7 87 1010.7 3.8 NE 6.9 0.0 0.3
04:01 17.9 15.7 87 1010.6 3.8 NE 6.0 0.0 0.3
04:02 17.9 15.9 88 1010.6 3.1 E 6.0 0.0 0.3
04:03 17.9 15.9 88 1010.5 3.1 E 6.0 0.0 0.3
04:04 17.9 15.9 88 1010.3 3.1 E 6.0 0.0 0.3
04:05 17.9 15.9 88 1010.5 5.4 NE 6.0 0.0 0.3
04:06 17.9 15.9 88 1010.5 5.4 NE 6.0 0.0 0.3
04:07 17.9 15.9 88 1010.6 5.4 NE 6.0 0.0 0.3
04:08 17.9 15.9 88 1010.5 5.4 NE 6.0 0.0 0.3
04:09 17.9 15.9 88 1010.6 5.4 NE 6.0 0.0 0.3
04:10 17.9 15.9 88 1010.7 6.9 E 6.9 0.0 0.3
04:11 17.9 15.9 88 1010.5 6.9 E 6.9 0.0 0.3
04:12 17.9 15.9 88 1010.6 5.4 NE 6.9 0.0 0.3
04:13 17.9 15.9 88 1010.5 5.4 NE 6.9 0.0 0.3
04:14 17.9 15.9 88 1010.5 6.0 NE 6.9 0.0 0.3
04:15 17.9 15.9 88 1010.5 6.0 E 6.9 0.0 0.3
04:16 17.9 15.9 88 1010.6 6.0 E 6.9 0.0 0.3
04:17 17.9 15.9 88 1010.5 6.9 E 7.6 0.0 0.3
04:18 17.9 15.9 88 1010.5 6.0 NE 7.6 0.0 0.3
04:19 17.9 15.9 88 1010.5 4.5 NE 7.6 0.0 0.3
04:20 17.9 15.9 88 1010.5 8.3 NE 8.3 0.0 0.3
04:21 17.9 15.9 88 1010.4 8.3 NE 8.3 0.0 0.3
04:22 17.9 15.9 88 1010.6 8.3 NE 8.3 0.0 0.3
04:23 17.9 15.9 88 1010.6 8.3 NE 8.3 0.0 0.3
04:24 17.9 15.9 88 1010.5 8.3 NE 8.3 0.0 0.3
04:25 17.9 15.9 88 1010.5 4.5 NNE 8.3 0.0 0.3
04:26 17.9 15.9 88 1010.3 6.9 SE 8.3 0.0 0.3
04:27 17.9 15.9 88 1010.3 6.9 SE 8.3 0.0 0.3
04:28 17.9 15.9 88 1010.4 6.0 E 8.3 0.0 0.3
04:29 17.9 15.9 88 1010.4 6.0 E 8.3 0.0 0.3
04:30 17.9 15.9 88 1010.4 6.0 E 8.3 0.0 0.3
04:31 17.9 15.9 88 1010.4 6.0 E 8.3 0.0 0.3
04:32 17.8 15.8 88 1010.3 5.4 E 8.3 0.0 0.3
04:33 17.8 15.8 88 1010.0 4.5 E 8.3 0.0 0.3
04:34 17.8 15.8 88 1010.2 6.9 SW 8.3 0.0 0.3
04:35 17.8 15.8 88 1010.0 4.5 NE 6.9 0.0 0.3
04:36 17.8 15.8 88 1010.3 3.1 WSW 6.9 0.0 0.3
04:37 17.8 15.8 88 1010.3 3.1 WSW 6.9 0.0 0.3
04:38 17.8 15.8 88 1010.2 4.5 WNW 6.9 0.0 0.3
04:39 17.8 15.8 88 1010.2 3.8 NE 6.9 0.0 0.3
04:40 17.8 15.8 88 1010.1 2.2 N 6.9 0.0 0.3
04:41 17.8 15.8 88 1010.3 3.1 E 6.9 0.0 0.3
04:42 17.8 15.8 88 1010.1 5.4 NE 6.9 0.0 0.3
04:43 17.8 15.8 88 1010.3 5.4 NE 6.9 0.0 0.3
04:44 17.8 15.8 88 1010.3 5.4 N 6.9 0.0 0.3
04:45 17.8 15.8 88 1010.2 3.1 SE 5.4 0.0 0.3
04:46 17.8 15.8 88 1010.4 3.1 NNW 5.4 0.0 0.3
04:47 17.8 15.8 88 1010.1 6.0 NE 6.0 0.0 0.3
04:48 17.8 15.8 88 1010.3 6.0 NE 6.0 0.0 0.3
04:49 17.8 15.8 88 1010.5 5.4 E 6.0 0.0 0.3
04:50 17.8 15.8 88 1010.3 4.5 NE 6.0 0.0 0.3
04:51 17.8 15.8 88 1010.4 5.4 SE 6.0 0.0 0.3
04:52 17.8 16.0 89 1010.4 3.8 NNW 6.0 0.0 0.3
04:53 17.8 16.0 89 1010.5 9.2 E 9.2 0.0 0.3
04:54 17.8 16.0 89 1010.4 3.8 E 9.2 0.0 0.3
04:55 17.8 16.0 89 1010.3 2.2 SW 9.2 0.0 0.3
04:56 17.8 16.0 89 1010.4 3.1 E 9.2 0.0 0.3
04:57 17.8 16.0 89 1010.5 3.8 NE 9.2 0.0 0.3
04:58 17.8 16.0 89 1010.5 2.2 ENE 9.2 0.0 0.3
04:59 17.8 16.0 89 1010.7 5.4 NE 9.2 0.0 0.3
05:00 17.8 16.0 89 1010.5 4.5 NE 9.2 0.0 0.3
05:01 17.8 16.0 89 1010.6 4.5 NE 9.2 0.0 0.3
05:02 17.8 16.0 89 1010.3 4.5 NE 9.2 0.0 0.3
05:03 17.8 16.0 89 1010.6 4.5 NE 9.2 0.0 0.3
05:04 17.8 16.0 89 1010.5 4.5 NE 5.4 0.0 0.3
05:05 17.8 16.0 89 1010.6 4.5 NE 5.4 0.0 0.3
05:06 17.8 16.0 89 1010.6 4.5 NE 5.4 0.0 0.3
05:07 17.8 16.0 89 1010.5 4.5 NE 5.4 0.0 0.3
05:08 17.8 16.0 89 1010.7 3.8 NE 5.4 0.0 0.3
05:09 17.8 16.0 89 1010.6 3.8 E 5.4 0.0 0.3
05:10 17.8 16.0 89 1010.4 3.8 E 4.5 0.0 0.3
05:11 17.8 16.0 89 1010.5 7.6 E 7.6 0.0 0.3
05:12 17.8 16.0 89 1010.5 7.6 E 7.6 0.0 0.3
05:13 17.8 16.0 89 1010.5 6.0 E 7.6 0.0 0.3
05:14 17.8 16.0 89 1010.7 6.0 E 7.6 0.0 0.3
05:15 17.8 16.0 89 1010.5 6.9 NE 7.6 0.0 0.3
05:16 17.8 16.0 89 1010.5 6.9 E 7.6 0.0 0.3
05:17 17.8 16.0 89 1010.5 3.8 NE 7.6 0.0 0.3
05:18 17.8 16.0 89 1010.4 3.1 NNW 7.6 0.0 0.3
05:19 17.8 16.0 89 1010.5 1.6 NE 7.6 0.0 0.3
05:20 17.8 16.0 89 1010.4 0.7 SW 7.6 0.0 0.3
05:21 17.8 16.0 89 1010.4 2.2 NE 7.6 0.0 0.3
05:22 17.8 16.0 89 1010.4 6.0 SE 7.6 0.0 0.3
05:23 17.8 16.0 89 1010.6 5.4 N 6.9 0.0 0.3
05:24 17.8 16.0 89 1010.5 4.5 N 6.9 0.0 0.3
05:25 17.8 16.0 89 1010.4 3.1 E 6.9 0.8 0.3
05:26 17.8 16.0 89 1010.4 5.4 N 6.0 0.8 0.3
05:27 17.8 16.0 89 1010.4 5.4 N 6.0 0.8 0.3
05:28 17.8 16.0 89 1010.5 2.2 S 6.0 0.8 0.3
05:29 17.8 16.0 89 1010.7 4.5 SW 6.0 0.8 0.3
05:30 17.8 16.0 89 1010.6 4.5 N 6.0 0.0 0.3
05:31 17.8 16.0 89 1010.4 4.5 NE 6.0 0.0 0.3
05:32 17.8 16.0 89 1010.4 4.5 NE 5.4 0.0 0.3
05:33 17.8 16.0 89 1010.4 3.1 NE 5.4 0.0 0.3
05:34 17.8 16.0 89 1010.7 5.4 NE 5.4 0.0 0.3
05:35 17.8 16.0 89 1010.5 3.8 NE 7.6 0.0 0.3
05:36 17.8 16.0 89 1010.5 6.0 E 7.6 0.0 0.3
05:37 17.8 16.0 89 1010.6 6.0 NE 7.6 0.0 0.3
05:38 17.8 16.0 89 1010.5 3.8 N 7.6 0.0 0.3
05:39 17.8 16.0 89 1010.4 2.2 SW 7.6 0.0 0.3
05:40 17.8 16.0 89 1010.6 4.5 NW 7.6 0.0 0.3
05:41 17.8 16.0 89 1010.5 5.4 W 7.6 0.0 0.3
05:42 17.8 16.0 89 1010.6 6.9 S 7.6 0.0 0.4
05:43 17.8 16.0 89 1010.6 4.5 NE 7.6 0.8 0.4
05:44 17.8 16.0 89 1010.6 4.5 NE 7.6 0.8 0.4
05:45 17.8 16.0 89 1010.7 2.2 SE 6.9 0.8 0.4
05:46 17.7 15.9 89 1010.5 2.2 SW 6.9 0.8 0.4
05:47 17.7 15.9 89 1010.6 2.2 E 6.9 1.5 0.4
05:48 17.7 15.9 89 1010.7 3.1 E 6.9 0.8 0.4
05:49 17.7 15.9 89 1010.8 3.1 NE 6.9 0.8 0.4
05:50 17.7 15.9 89 1010.8 2.2 E 6.9 0.8 0.4
05:51 17.7 15.9 89 1010.7 2.2 NE 6.9 1.5 0.5
05:52 17.7 15.9 89 1010.5 4.5 ESE 6.9 0.8 0.5
05:53 17.7 15.9 89 1010.6 4.5 NE 4.5 0.8 0.6
05:54 17.7 15.9 89 1010.8 5.4 NNW 5.4 1.5 0.6
05:55 17.7 15.9 89 1010.6 5.4 NE 5.4 1.5 0.6
05:56 17.7 15.9 89 1010.8 3.1 NE 5.4 0.8 0.6
05:57 17.7 15.9 89 1010.8 4.5 NE 5.4 0.8 0.6
05:58 17.7 16.1 90 1010.4 7.6 S 7.6 0.8 0.6
05:59 17.7 16.1 90 1010.7 3.8 NE 7.6 0.8 0.6
06:00 17.7 16.1 90 1010.7 3.8 SE 7.6 0.8 0.6
06:01 17.7 16.1 90 1010.8 3.8 E 7.6 0.8 0.6
06:02 17.7 16.1 90 1010.6 3.1 NE 7.6 0.8 0.6
06:03 17.7 16.1 90 1011.0 3.8 E 7.6 0.8 0.6
06:04 17.7 16.1 90 1011.0 3.1 S 7.6 0.0 0.6
06:05 17.7 16.1 90 1010.9 3.1 S 7.6 0.0 0.6
06:06 17.7 16.1 90 1010.6 5.4 NE 7.6 0.0 0.6
06:07 17.7 16.1 90 1010.9 3.8 NE 7.6 0.0 0.6
06:08 17.7 16.1 90 1010.8 3.1 S 7.6 0.0 0.6
06:09 17.7 16.1 90 1010.7 4.5 E 5.4 0.0 0.7
06:10 17.7 16.1 90 1010.6 4.5 E 5.4 0.8 0.7
06:11 17.7 16.1 90 1010.8 3.8 N 5.4 0.8 0.7
06:12 17.7 16.1 90 1010.6 3.1 W 5.4 0.8 0.7
06:13 17.7 16.1 90 1010.7 5.4 E 5.4 0.8 0.7
06:14 17.7 16.1 90 1010.9 4.5 W 5.4 0.8 0.7
06:15 17.7 16.1 90 1010.8 3.1 NE 5.4 0.0 0.7
06:16 17.7 16.1 90 1010.7 2.2 NNW 5.4 0.0 0.7
06:17 17.7 16.1 90 1010.7 3.1 E 5.4 0.0 0.7
06:18 17.7 16.1 90 1010.7 4.5 E 5.4 0.0 0.7
06:19 17.7 16.1 90 1010.9 2.2 N 5.4 0.8 0.8
06:20 17.7 16.1 90 1010.5 2.2 N 5.4 0.8 0.8
06:21 17.7 16.1 90 1010.7 1.6 S 5.4 0.8 0.8
06:22 17.7 16.1 90 1010.7 1.6 SE 5.4 1.5 0.8
06:23 17.7 16.1 90 1010.7 1.6 NNW 4.5 1.5 0.8
06:24 17.7 16.1 90 1010.9 3.1 NNW 4.5 0.8 0.8
06:25 17.7 16.1 90 1010.7 3.1 N 4.5 1.5 0.9
06:26 17.7 16.1 90 1010.6 2.2 SW 4.5 1.5 0.9
06:27 17.7 16.1 90 1010.6 2.2 NE 4.5 1.5 0.9
06:28 17.7 16.1 90 1010.6 2.2 E 3.1 1.5 0.9
06:29 17.7 16.1 90 1010.6 2.2 SE 3.1 2.3 1.0
06:30 17.7 16.1 90 1010.7 1.6 NE 3.1 2.3 1.1
06:31 17.7 16.1 90 1010.6 3.8 E 3.8 2.3 1.1
06:32 17.7 16.1 90 1010.6 2.2 S 3.8 1.5 1.1
06:33 17.7 16.1 90 1010.5 1.6 SE 3.8 1.5 1.1
06:34 17.7 16.1 90 1010.8 4.5 S 4.5 0.8 1.1
06:35 17.7 16.1 90 1010.7 3.1 NE 4.5 0.8 1.1
06:36 17.7 16.1 90 1010.6 1.6 N 4.5 0.8 1.1
06:37 17.7 16.1 90 1010.7 2.2 NNW 4.5 0.8 1.1
06:38 17.7 16.1 90 1010.7 1.6 S 4.5 0.8 1.1
06:39 17.7 16.1 90 1010.7 2.2 N 4.5 0.8 1.1
06:40 17.7 16.1 90 1010.7 2.2 E 4.5 0.8 1.2
06:41 17.7 16.1 90 1010.7 2.2 E 4.5 0.8 1.2
06:42 17.7 16.1 90 1010.8 3.1 NE 4.5 0.8 1.2
06:43 17.7 16.1 90 1010.8 1.6 NE 4.5 0.8 1.2
06:44 17.7 16.1 90 1010.7 1.6 NE 4.5 0.8 1.2
06:45 17.7 16.1 90 1010.6 0.7 NE 3.1 0.0 1.2
06:46 17.7 16.1 90 1010.4 3.1 E 3.1 0.0 1.2
06:47 17.7 16.1 90 1010.7 2.2 NE 3.1 0.0 1.2
06:48 17.7 16.1 90 1010.5 4.5 NNW 4.5 0.8 1.3
06:49 17.7 16.1 90 1010.5 3.1 E 4.5 0.8 1.3
06:50 17.7 16.1 90 1010.5 3.1 E 4.5 0.8 1.3
06:51 17.7 16.1 90 1010.5 3.1 NNE 4.5 0.8 1.3
06:52 17.7 16.1 90 1010.6 3.1 E 4.5 1.5 1.3
06:53 17.8 16.1 90 1010.7 1.6 S 4.5 0.8 1.3
06:54 17.8 16.1 90 1010.5 1.6 S 4.5 0.8 1.3
06:55 17.8 16.1 90 1010.8 1.6 S 4.5 0.8 1.3
06:56 17.8 16.1 90 1010.7 1.6 S 4.5 0.8 1.3
06:57 17.8 16.1 90 1010.8 1.6 W 4.5 0.0 1.3
06:58 17.8 16.1 90 1010.6 1.6 W 4.5 0.0 1.3
06:59 17.8 16.1 90 1010.6 1.6 SW 3.1 0.8 1.4
07:00 17.8 16.1 90 1010.6 0.7 S 3.1 0.8 1.4
07:01 17.8 16.1 90 1010.5 0.7 S 3.1 0.8 1.4
07:02 17.8 16.1 90 1010.5 0.7 S 3.1 0.8 1.4
07:03 17.8 16.1 90 1010.5 1.6 SW 2.2 1.5 1.4
07:04 17.8 16.1 90 1010.5 1.6 SW 2.2 1.5 1.5
07:05 17.8 16.1 90 1010.4 1.6 SW 2.2 1.5 1.6
07:06 17.8 16.1 90 1010.5 1.6 W 2.2 2.3 1.6
07:07 17.8 16.1 90 1010.6 1.6 W 2.2 2.3 1.6
07:08 17.8 16.1 90 1010.7 0.7 W 2.2 1.5 1.6
07:09 17.8 16.1 90 1010.7 1.6 W 1.6 1.5 1.6
07:10 17.8 16.1 90 1010.6 1.6 SW 1.6 1.5 1.6
07:11 17.8 16.1 90 1010.8 2.2 SW 2.2 1.5 1.7
07:12 17.8 16.1 90 1010.5 1.6 SW 2.2 2.3 1.8
07:13 17.8 16.1 90 1010.7 1.6 SW 2.2 3.0 1.8
07:14 17.8 16.1 90 1010.6 1.6 SW 2.2 2.3 1.8
07:15 17.8 16.1 90 1010.4 2.2 SW 2.2 3.0 1.9
07:16 17.8 16.1 90 1010.5 2.2 S 2.2 2.3 1.9
07:17 17.8 16.1 90 1010.7 0.7 SW 2.2 1.5 1.9
07:18 17.8 16.1 90 1010.6 0.7 E 2.2 0.8 1.9
07:19 17.8 16.1 90 1010.6 1.6 SE 2.2 0.8 1.9
07:20 17.8 16.1 90 1010.7 0.7 SE 2.2 0.8 2.0
07:21 17.8 16.1 90 1010.7 1.6 S 2.2 0.8 2.0
07:22 17.8 16.1 90 1010.7 1.6 S 2.2 0.8 2.0
07:23 17.8 16.1 90 1010.7 0.7 S 2.2 0.8 2.0
07:24 17.8 16.1 90 1010.7 0.7 S 2.2 0.8 2.0
07:25 17.8 16.1 90 1010.7 1.6 SW 2.2 0.0 2.0
07:26 17.8 16.1 90 1010.7 3.1 W 3.1 0.0 2.0
07:27 17.8 16.1 90 1010.7 3.1 S 3.8 0.0 2.0
07:28 17.8 16.1 90 1010.7 2.2 E 3.8 0.0 2.0
07:29 17.8 16.1 90 1010.9 3.1 S 3.8 0.0 2.0
07:30 17.8 16.1 90 1010.8 3.1 S 3.8 0.0 2.0
07:31 17.8 16.1 90 1010.8 3.1 S 3.8 0.0 2.0
07:32 17.8 16.1 90 1010.6 3.1 S 3.8 0.0 2.0
07:33 17.8 16.1 90 1010.9 3.1 S 3.8 0.0 2.0
07:34 17.9 16.2 90 1010.7 4.5 S 4.5 0.0 2.0
07:35 17.9 16.2 90 1010.9 3.8 S 4.5 0.0 2.0
07:36 17.9 16.2 90 1010.8 3.8 S 4.5 0.0 2.0
07:37 17.9 16.2 90 1010.8 3.1 S 4.5 0.0 2.0
07:38 17.9 16.2 90 1010.9 3.1 S 4.5 0.0 2.0
07:39 17.9 16.2 90 1010.7 3.8 S 4.5 0.0 2.0
07:40 17.9 16.2 90 1010.7 3.8 S 4.5 0.0 2.0
07:41 17.9 16.2 90 1010.8 3.1 S 4.5 0.8 2.0
07:42 17.9 16.2 90 1010.6 5.4 SW 5.4 0.8 2.0
07:43 17.9 16.2 90 1010.9 4.5 SE 5.4 1.5 2.1
07:44 17.9 16.2 90 1010.9 6.0 S 6.0 1.5 2.1
07:45 17.9 16.2 90 1011.0 3.8 S 6.0 1.5 2.1
07:46 17.9 16.2 90 1010.8 3.8 SE 6.0 0.8 2.1
07:47 17.9 16.2 90 1010.7 5.4 SE 6.0 1.5 2.1
07:48 17.9 16.2 90 1010.7 5.4 S 6.0 0.8 2.1
07:49 17.9 16.4 91 1010.8 4.5 S 6.0 0.8 2.1
07:50 17.9 16.4 91 1010.9 4.5 S 6.0 0.8 2.2
07:51 17.9 16.4 91 1010.9 3.8 S 6.0 1.5 2.2
07:52 17.9 16.4 91 1010.9 3.8 S 6.0 0.8 2.2
07:53 17.9 16.4 91 1010.7 5.4 S 6.0 0.8 2.2
07:54 17.9 16.4 91 1010.9 3.8 SW 6.0 1.5 2.3
07:55 18.0 16.5 91 1010.8 2.2 S 5.4 2.3 2.3
07:56 18.0 16.5 91 1010.8 3.1 S 5.4 1.5 2.3
07:57 18.0 16.5 91 1010.8 3.1 S 5.4 1.5 2.3
07:58 18.0 16.5 91 1010.7 3.8 S 5.4 1.5 2.3
07:59 18.0 16.5 91 1010.7 2.2 S 5.4 0.8 2.3
08:00 18.0 16.5 91 1011.0 2.2 S 5.4 0.8 2.4
08:01 18.0 16.5 91 1010.8 2.2 S 5.4 0.8 2.4
08:02 18.1 16.6 91 1010.9 3.8 SW 5.4 0.8 2.4
08:03 18.1 16.6 91 1010.6 3.1 SW 3.8 0.8 2.4
08:04 18.1 16.6 91 1011.0 3.8 S 3.8 0.8 2.4
08:05 18.1 16.6 91 1010.8 3.8 SE 3.8 0.0 2.4
08:06 18.1 16.6 91 1010.8 3.8 SW 3.8 0.0 2.4
08:07 18.2 16.7 91 1010.9 4.5 SW 4.5 0.0 2.4
08:08 18.2 16.7 91 1010.7 3.1 SW 4.5 0.0 2.4
08:09 18.2 16.7 91 1011.0 3.8 S 4.5 0.0 2.4
08:10 18.2 16.7 91 1010.9 3.1 W 4.5 0.0 2.4
08:11 18.2 16.7 91 1010.9 3.1 S 4.5 0.0 2.4
08:12 18.2 16.7 91 1011.0 3.1 SW 4.5 0.0 2.4
08:13 18.3 16.8 91 1011.0 3.1 SW 4.5 0.0 2.4
08:14 18.3 16.8 91 1011.0 3.1 S 4.5 0.0 2.4
08:15 18.3 16.8 91 1010.9 2.2 SW 4.5 0.0 2.4
08:16 18.4 16.9 91 1010.7 2.2 S 4.5 0.0 2.4
08:17 18.4 16.9 91 1010.8 3.1 S 4.5 0.0 2.4
08:18 18.4 16.9 91 1010.9 2.2 S 3.8 0.0 2.4
08:19 18.5 17.0 91 1011.0 3.1 S 3.8 0.0 2.4
08:20 18.5 17.2 92 1011.2 3.8 S 3.8 0.0 2.4
08:21 18.5 17.2 92 1010.9 3.8 S 3.8 0.0 2.4
08:22 18.6 17.3 92 1011.0 3.1 SW 3.8 0.0 2.4
08:23 18.6 17.3 92 1010.8 3.1 S 3.8 0.0 2.4
08:24 18.7 17.4 92 1010.9 3.1 S 3.8 0.0 2.4
08:25 18.7 17.4 92 1010.9 3.1 S 3.8 0.0 2.4
08:26 18.7 17.4 92 1010.9 2.2 SW 3.8 0.0 2.4
08:27 18.8 17.5 92 1010.9 4.5 S 4.5 0.0 2.4
08:28 18.9 17.6 92 1011.1 3.8 S 4.5 0.0 2.4
08:29 19.0 17.7 92 1010.9 3.1 NE 4.5 0.0 2.4
08:30 19.0 17.7 92 1011.2 3.1 NNW 4.5 0.0 2.4
08:31 19.0 17.9 93 1010.9 4.5 S 4.5 0.0 2.4
08:32 19.1 18.0 93 1011.1 4.5 E 4.5 0.0 2.4
08:33 19.1 18.0 93 1011.1 6.0 S 6.0 0.0 2.4
08:34 19.1 18.0 93 1011.1 6.9 SE 6.9 0.0 2.4
08:35 19.2 18.1 93 1011.3 2.2 SW 6.9 0.0 2.4
08:36 19.2 18.1 93 1011.3 2.2 NW 6.9 0.0 2.4
08:37 19.2 18.1 93 1011.0 5.4 S 6.9 0.0 2.4
08:38 19.2 18.1 93 1011.2 4.5 E 6.9 0.0 2.4
08:39 19.2 18.1 93 1011.1 6.0 S 6.9 0.0 2.4
08:40 19.3 18.2 93 1011.1 6.9 S 6.9 0.0 2.4
08:41 19.2 18.1 93 1011.2 6.0 SW 6.9 0.0 2.4
08:42 19.2 18.1 93 1011.1 3.8 S 6.9 0.0 2.4
08:43 19.3 18.2 93 1011.1 4.5 S 6.9 0.0 2.4
08:44 19.3 18.2 93 1011.1 6.9 S 6.9 0.0 2.4
08:45 19.3 18.2 93 1011.1 6.0 S 6.9 0.0 2.4
08:46 19.3 18.2 93 1011.1 5.4 ESE 6.9 0.0 2.4
08:47 19.3 18.2 93 1011.1 5.4 E 6.9 0.0 2.4
08:48 19.3 18.2 93 1011.1 5.4 S 6.9 0.0 2.4
08:49 19.3 18.2 93 1011.1 6.0 ESE 6.9 0.0 2.4
08:50 19.3 18.2 93 1011.1 5.4 S 6.9 0.0 2.4
08:51 19.3 18.2 93 1011.4 6.0 S 6.9 0.0 2.4
08:52 19.3 18.2 93 1011.4 4.5 S 6.9 0.0 2.4
08:53 19.3 18.2 93 1011.2 4.5 S 6.9 0.0 2.4
08:54 19.3 18.2 93 1011.4 3.1 NE 6.9 0.0 2.4
08:55 19.4 18.3 93 1011.3 3.8 NE 6.0 0.0 2.4
08:56 19.4 18.3 93 1011.2 3.1 S 6.0 0.0 2.4
08:57 19.4 18.3 93 1011.4 3.8 S 6.0 0.0 2.4
08:58 19.4 18.3 93 1011.1 6.9 S 6.9 0.0 2.4
08:59 19.4 18.3 93 1011.3 3.8 SE 6.9 0.0 2.4
09:00 19.4 18.3 93 1011.2 3.8 S 6.9 0.0 2.4
09:01 19.4 18.3 93 1011.3 3.8 S 6.9 0.0 2.4
09:02 19.4 18.3 93 1011.2 3.8 S 6.9 0.0 2.4
09:03 19.5 18.4 93 1011.3 3.8 W 6.9 0.0 2.4
09:04 19.6 18.6 94 1011.1 3.1 E 6.9 0.0 2.4
09:05 19.6 18.6 94 1011.1 2.2 NE 6.9 0.0 2.4
09:06 19.6 18.6 94 1011.2 3.1 W 6.9 0.0 2.4
09:07 19.7 18.7 94 1011.0 5.4 SE 6.9 0.0 2.4
09:08 19.7 18.7 94 1011.3 3.1 N 6.9 0.0 2.4
09:09 19.7 18.7 94 1011.0 2.2 NE 5.4 0.0 2.4
09:10 19.8 18.8 94 1011.0 3.8 S 5.4 0.0 2.4
09:11 19.8 18.8 94 1011.1 3.8 S 5.4 0.0 2.4
09:12 19.8 18.8 94 1011.3 2.2 SE 5.4 0.0 2.4
09:13 19.9 18.9 94 1011.4 4.5 SW 5.4 0.0 2.4
09:14 19.9 18.9 94 1011.2 3.1 SW 5.4 0.0 2.4
09:15 19.9 18.9 94 1011.3 1.6 N 5.4 0.0 2.4
09:16 19.9 18.9 94 1011.4 0.7 SE 5.4 0.0 2.4
09:17 19.9 18.9 94 1011.5 2.2 SW 5.4 0.0 2.4
09:18 19.9 18.9 94 1011.3 4.5 SE 4.5 0.0 2.4
09:19 19.9 18.9 94 1011.4 4.5 S 5.4 0.0 2.4
09:20 19.9 18.9 94 1011.6 3.8 S 5.4 0.0 2.4
09:21 19.9 18.9 94 1011.4 3.8 SW 5.4 0.0 2.4
09:22 19.9 18.9 94 1011.4 3.1 S 5.4 0.0 2.4
09:23 19.9 18.8 93 1011.2 2.2 E 5.4 0.0 2.4
09:24 20.0 18.9 93 1011.2 2.2 E 5.4 0.0 2.4
09:25 20.1 18.9 93 1011.1 3.1 E 5.4 0.0 2.4
09:26 20.2 19.0 93 1011.1 3.1 NE 5.4 0.0 2.4
09:27 20.2 19.0 93 1011.2 3.1 E 5.4 0.0 2.4
09:28 20.2 19.0 93 1011.3 2.2 NNW 5.4 0.0 2.4
09:29 20.2 19.0 93 1011.5 1.6 NE 4.5 0.0 2.4
09:30 20.3 19.1 93 1011.3 2.2 E 3.8 0.0 2.4
09:31 20.3 19.1 93 1011.1 2.2 NW 3.8 0.0 2.4
09:32 20.4 19.2 93 1011.2 2.2 SE 3.1 0.0 2.4
09:33 20.4 19.1 92 1011.4 1.6 NW 3.1 0.0 2.4
09:34 20.4 19.1 92 1011.5 1.6 NE 3.1 0.0 2.4
09:35 20.4 19.1 92 1011.4 1.6 NE 3.1 0.0 2.4
09:36 20.4 19.1 92 1011.4 2.2 ENE 3.1 0.0 2.4
09:37 20.4 18.9 91 1011.2 3.8 SW 3.8 0.0 2.4
09:38 20.3 18.8 91 1011.3 3.8 S 3.8 0.0 2.4
09:39 20.3 18.8 91 1011.1 3.1 E 3.8 0.0 2.4
09:40 20.3 18.8 91 1011.2 4.5 S 4.5 0.0 2.4
09:41 20.2 18.5 90 1011.3 4.5 S 4.5 0.0 2.4
09:42 20.2 18.5 90 1011.5 5.4 S 5.4 0.0 2.4
09:43 20.2 18.5 90 1011.3 4.5 SE 5.4 0.0 2.4
09:44 20.2 18.5 90 1011.4 3.8 S 5.4 0.0 2.4
09:45 20.2 18.5 90 1011.6 4.5 S 5.4 0.0 2.4
09:46 20.2 18.5 90 1011.6 3.1 S 5.4 0.0 2.4
09:47 20.1 18.4 90 1011.5 3.1 S 5.4 0.0 2.4
09:48 20.1 18.4 90 1011.4 4.5 SE 5.4 0.0 2.4
09:49 20.1 18.4 90 1011.3 4.5 ENE 5.4 0.0 2.4
09:50 20.1 18.4 90 1011.5 3.8 S 5.4 0.0 2.4
09:51 20.1 18.2 89 1011.2 2.2 E 5.4 0.0 2.4
09:52 20.1 18.2 89 1011.3 1.6 SE 5.4 0.0 2.4
09:53 20.1 18.2 89 1011.5 1.6 S 5.4 0.0 2.4
09:54 20.1 18.2 89 1011.6 4.5 S 5.4 0.0 2.4
09:55 20.1 18.2 89 1011.3 3.8 S 5.4 0.0 2.4
09:56 20.1 18.2 89 1011.4 3.1 S 5.4 0.0 2.4
09:57 20.2 18.3 89 1011.1 4.5 SE 4.5 0.0 2.4
09:58 20.2 18.3 89 1011.3 4.5 SW 4.5 0.0 2.4
09:59 20.1 18.2 89 1011.7 2.2 E 4.5 0.0 2.4
10:00 20.1 18.2 89 1011.3 1.6 S 4.5 0.0 2.4
10:01 20.1 18.2 89 1011.4 1.6 S 4.5 0.0 2.4
10:02 20.1 18.2 89 1011.5 1.6 S 4.5 0.0 2.4
10:03 20.1 18.2 89 1011.3 1.6 S 4.5 0.0 2.4
10:04 20.1 18.2 89 1011.4 1.6 S 4.5 0.0 2.4
10:05 20.1 18.1 88 1011.4 4.5 SW 4.5 0.0 2.4
10:06 20.1 18.1 88 1011.5 3.1 S 4.5 0.0 2.4
10:07 20.1 18.1 88 1011.4 6.0 SW 6.0 0.0 2.4
10:08 20.1 18.1 88 1011.6 6.0 W 6.0 0.0 2.4
10:09 20.1 17.9 87 1011.4 4.5 SW 6.0 0.0 2.4
10:10 20.1 17.9 87 1011.5 4.5 S 6.0 0.0 2.4
10:11 20.2 18.0 87 1011.5 6.9 S 6.9 0.0 2.4
10:12 20.2 18.0 87 1011.5 6.9 W 6.9 0.0 2.4
10:13 20.2 18.0 87 1011.6 5.4 SW 6.9 0.0 2.4
10:14 20.2 18.0 87 1011.4 4.5 S 6.9 0.0 2.4
10:15 20.1 17.9 87 1011.4 4.5 SW 6.9 0.0 2.4
10:16 20.1 17.9 87 1011.5 3.8 S 6.9 0.0 2.4
10:17 20.1 17.9 87 1011.4 6.0 SE 6.9 0.0 2.4
10:18 20.1 17.9 87 1011.6 6.0 SW 6.9 0.0 2.4
10:19 20.1 17.9 87 1011.5 3.1 S 6.9 0.0 2.4
10:20 20.1 17.9 87 1011.5 3.8 S 6.9 0.0 2.4
10:21 20.2 18.0 87 1011.5 3.1 NE 6.9 0.0 2.4
10:22 20.2 18.0 87 1011.4 3.8 S 6.0 0.0 2.4
10:23 20.3 18.1 87 1011.4 3.8 S 6.0 0.0 2.4
10:24 20.2 18.0 87 1011.5 3.8 SW 6.0 0.0 2.4
10:25 20.2 18.0 87 1011.7 2.2 SW 6.0 0.0 2.4
10:26 20.2 18.0 87 1011.7 0.7 W 6.0 0.0 2.4
10:27 20.2 17.8 86 1011.7 2.2 SW 6.0 0.0 2.4
10:28 20.1 17.7 86 1011.7 2.2 SW 4.5 0.0 2.4
10:29 20.1 17.7 86 1011.5 2.2 SW 3.8 0.0 2.4
10:30 20.1 17.7 86 1011.6 3.1 S 3.8 0.0 2.4
10:31 20.1 17.7 86 1011.6 4.5 S 4.5 0.0 2.4
10:32 20.1 17.7 86 1011.6 2.2 S 4.5 0.0 2.4
10:33 20.2 17.8 86 1011.8 3.1 SSW 4.5 0.0 2.4
10:34 20.2 17.8 86 1011.8 3.8 SE 4.5 0.0 2.4
10:35 20.2 17.8 86 1011.7 3.1 S 4.5 0.0 2.4
10:36 20.2 17.8 86 1011.5 2.2 S 4.5 0.0 2.4
10:37 20.3 17.9 86 1011.7 2.2 SE 4.5 0.0 2.4
10:38 20.3 17.9 86 1011.7 1.6 NE 4.5 0.0 2.4
10:39 20.3 17.9 86 1011.6 2.2 SW 4.5 0.0 2.4
10:40 20.3 17.9 86 1011.5 1.6 S 4.5 0.0 2.4
10:41 20.3 17.9 86 1011.7 3.8 S 4.5 0.0 2.4
10:42 20.4 18.0 86 1011.5 3.8 S 3.8 0.0 2.4
10:43 20.4 18.0 86 1011.5 3.8 NE 3.8 0.0 2.4
10:44 20.4 18.0 86 1011.7 3.8 NE 3.8 0.0 2.4
10:45 20.5 18.1 86 1011.5 3.8 S 3.8 0.0 2.4
10:46 20.5 17.9 85 1011.7 3.8 SW 3.8 0.0 2.4
10:47 20.4 17.8 85 1011.5 2.2 WSW 3.8 0.0 2.4
10:48 20.4 17.6 84 1011.7 1.6 W 3.8 0.0 2.4
10:49 20.4 17.6 84 1011.7 3.8 S 3.8 0.0 2.4
10:50 20.4 17.6 84 1011.6 2.2 NE 3.8 0.0 2.4
10:51 20.5 17.7 84 1011.6 1.6 E 3.8 0.0 2.4
10:52 20.5 17.7 84 1011.7 1.6 NE 3.8 0.0 2.4
10:53 20.5 17.7 84 1011.6 1.6 E 3.8 0.0 2.4
10:54 20.6 17.8 84 1011.6 2.2 S 3.8 0.0 2.4
10:55 20.7 17.9 84 1011.8 3.1 NE 3.8 0.0 2.4
10:56 20.8 18.0 84 1011.8 1.6 NE 3.8 0.0 2.4
10:57 20.9 18.1 84 1011.7 0.7 S 3.8 0.0 2.4
10:58 20.9 18.1 84 1011.8 1.6 S 3.8 0.0 2.4
10:59 20.9 18.1 84 1011.7 4.5 S 4.5 0.0 2.4
11:00 20.9 17.9 83 1011.7 3.8 SE 4.5 0.0 2.4
11:01 20.9 17.9 83 1012.0 3.8 SE 4.5 0.0 2.4
11:02 20.9 17.9 83 1011.9 3.8 SE 4.5 0.0 2.4
11:03 20.9 17.9 83 1011.9 3.8 SE 4.5 0.0 2.4
11:04 20.9 17.9 83 1011.9 3.8 SE 4.5 0.0 2.4
11:05 20.8 17.6 82 1011.8 5.4 NE 5.4 0.0 2.4
11:06 20.8 17.6 82 1012.0 4.5 NE 5.4 0.0 2.4
11:07 20.8 17.6 82 1011.9 4.5 NE 5.4 0.0 2.4
11:08 20.8 17.6 82 1012.1 1.6 SE 5.4 0.0 2.4
11:09 20.8 17.6 82 1012.0 2.2 NE 5.4 0.0 2.4
11:10 20.7 17.5 82 1011.9 4.5 E 5.4 0.0 2.4
11:11 20.7 17.5 82 1011.9 3.8 NE 5.4 0.0 2.4
11:12 20.8 17.6 82 1012.1 5.4 E 5.4 0.0 2.4
11:13 20.8 17.6 82 1011.9 5.4 E 5.4 0.0 2.4
11:14 20.8 17.6 82 1012.0 3.1 E 5.4 0.0 2.4
11:15 20.9 17.9 83 1011.9 3.8 NE 5.4 0.0 2.4
11:16 21.0 18.0 83 1011.7 4.5 NE 5.4 0.0 2.4
11:17 21.0 18.0 83 1012.0 3.8 NE 5.4 0.0 2.4
11:18 21.0 18.0 83 1012.0 3.8 NE 5.4 0.0 2.4
11:19 21.0 17.8 82 1011.8 1.6 E 5.4 0.0 2.4
11:20 20.9 17.7 82 1012.1 3.8 E 5.4 0.0 2.4
11:21 20.9 17.5 81 1011.8 1.6 W 5.4 0.0 2.4
11:22 20.8 17.4 81 1011.9 1.6 NW 5.4 0.0 2.4
11:23 20.8 17.4 81 1012.0 0.7 SW 4.5 0.0 2.4
11:24 20.8 17.4 81 1011.9 2.2 NW 4.5 0.0 2.4
11:25 20.9 17.5 81 1011.9 3.1 E 4.5 0.0 2.4
11:26 20.9 17.7 82 1012.0 3.1 S 4.5 0.0 2.4
11:27 21.1 17.9 82 1011.8 3.8 S 3.8 0.0 2.4
11:28 21.1 18.1 83 1011.9 4.5 S 4.5 0.0 2.4
11:29 21.2 18.2 83 1012.1 3.8 S 4.5 0.0 2.4
11:30 21.3 18.3 83 1011.8 1.6 NE 4.5 0.0 2.4
11:31 21.5 18.3 82 1011.9 2.2 N 4.5 0.0 2.4
11:32 21.7 18.5 82 1012.0 3.8 SW 4.5 0.0 2.4
11:33 21.8 18.6 82 1011.8 3.1 SE 4.5 0.0 2.4
11:34 21.8 18.4 81 1012.1 3.1 E 4.5 0.0 2.4
11:35 21.8 18.4 81 1012.0 3.1 NE 4.5 0.0 2.4
11:36 21.8 18.2 80 1012.0 2.2 S 4.5 0.0 2.4
11:37 21.8 18.2 80 1012.0 2.2 NE 4.5 0.0 2.4
11:38 21.7 17.7 78 1011.9 2.2 S 3.8 0.0 2.4
11:39 21.6 17.6 78 1011.9 3.1 NE 3.8 0.0 2.4
11:40 21.6 17.4 77 1012.0 3.8 E 3.8 0.0 2.4
11:41 21.6 17.6 78 1012.2 3.8 NE 3.8 0.0 2.4
11:42 21.6 17.6 78 1012.0 3.1 NE 3.8 0.0 2.4
11:43 21.5 17.5 78 1012.0 3.8 SW 3.8 0.0 2.4
11:44 21.5 17.5 78 1012.1 1.6 NE 3.8 0.0 2.4
11:45 21.5 17.5 78 1012.3 1.6 SE 3.8 0.0 2.4
11:46 21.5 17.5 78 1012.0 1.6 ENE 3.8 0.0 2.4
11:47 21.5 17.5 78 1012.2 2.2 NE 3.8 0.0 2.4
11:48 21.4 17.4 78 1012.1 3.1 ENE 3.8 0.0 2.4
11:49 21.3 17.3 78 1012.2 4.5 S 4.5 0.0 2.4
11:50 21.3 17.3 78 1012.1 4.5 SE 4.5 0.0 2.4
11:51 21.3 17.3 78 1012.3 3.8 S 4.5 0.0 2.4
11:52 21.2 17.2 78 1012.2 3.8 SW 4.5 0.0 2.4
11:53 21.2 17.2 78 1012.3 4.5 S 4.5 0.0 2.4
11:54 21.2 17.2 78 1012.1 3.1 SW 4.5 0.0 2.4
11:55 21.1 17.1 78 1012.1 1.6 S 4.5 0.0 2.4
11:56 21.1 17.1 78 1012.2 2.2 S 4.5 0.0 2.4
11:57 21.1 17.3 79 1012.2 1.6 S 4.5 0.0 2.4
11:58 21.1 17.3 79 1012.3 3.1 NE 4.5 0.0 2.4
11:59 21.1 17.3 79 1012.2 4.5 E 4.5 0.0 2.4
12:00 21.1 17.5 80 1012.3 4.5 E 4.5 0.0 2.4
12:01 21.1 17.5 80 1012.3 4.5 E 4.5 0.0 2.4
12:02 21.1 17.5 80 1012.1 4.5 E 4.5 0.0 2.4
12:03 21.1 17.5 80 1012.3 4.5 E 4.5 0.0 2.4
12:04 21.1 17.5 80 1012.4 4.5 E 4.5 0.0 2.4
12:05 21.2 17.4 79 1012.4 5.4 E 5.4 0.0 2.4
12:06 21.1 17.3 79 1012.3 3.1 NE 5.4 0.0 2.4
12:07 21.1 17.3 79 1012.5 2.2 N 5.4 0.0 2.4
12:08 21.1 17.3 79 1012.4 3.8 N 5.4 0.0 2.4
12:09 21.1 17.3 79 1012.6 3.1 NE 5.4 0.0 2.4
12:10 21.1 17.3 79 1012.3 3.1 NE 5.4 0.0 2.4
12:11 21.2 17.6 80 1012.2 4.5 SW 5.4 0.0 2.4
12:12 21.2 17.6 80 1012.3 3.1 NE 5.4 0.0 2.4
12:13 21.3 17.7 80 1012.3 3.1 NE 5.4 0.0 2.4
12:14 21.3 17.7 80 1012.4 3.8 SE 5.4 0.0 2.4
12:15 21.3 17.7 80 1012.4 6.0 S 6.0 0.0 2.4
12:16 21.2 17.4 79 1012.5 6.0 NE 6.0 0.0 2.4
12:17 21.1 17.3 79 1012.5 4.5 NE 6.0 0.0 2.4
12:18 21.1 17.3 79 1012.5 3.1 N 6.0 0.0 2.4
12:19 21.1 17.3 79 1012.3 4.5 NE 6.0 0.0 2.4
12:20 21.1 17.3 79 1012.5 6.0 NE 6.0 0.0 2.4
12:21 21.0 17.2 79 1012.6 6.0 E 6.0 0.0 2.4
12:22 21.0 17.0 78 1012.4 5.4 N 6.0 0.0 2.4
12:23 20.9 16.9 78 1012.4 2.2 S 6.0 0.0 2.4
12:24 20.9 17.1 79 1012.5 3.1 S 6.0 0.0 2.4
12:25 20.8 17.0 79 1012.3 3.8 SE 6.0 0.0 2.4
12:26 20.8 17.0 79 1012.3 3.8 NE 6.0 0.0 2.4
12:27 20.7 16.9 79 1012.5 2.2 S 6.0 0.0 2.4
12:28 20.7 16.9 79 1012.4 2.2 NE 6.0 0.0 2.4
12:29 20.7 16.9 79 1012.2 1.6 E 6.0 0.0 2.4
12:30 20.7 16.9 79 1012.3 1.6 E 6.0 0.0 2.4
12:31 20.6 17.0 80 1012.3 3.1 NE 5.4 0.0 2.4
12:32 20.6 17.0 80 1012.4 2.2 E 3.8 0.0 2.4
12:33 20.6 17.0 80 1012.4 3.1 SE 3.8 0.0 2.4
12:34 20.6 17.0 80 1012.5 3.1 S 3.8 0.0 2.4
12:35 20.6 17.0 80 1012.2 2.2 NE 3.8 0.0 2.4
12:36 20.6 17.0 80 1012.4 2.2 NE 3.1 0.0 2.4
12:37 20.6 17.0 80 1012.1 2.2 SW 3.1 0.0 2.4
12:38 20.6 17.0 80 1012.3 2.2 SW 3.1 0.0 2.4
12:39 20.6 17.0 80 1012.3 3.1 W 3.1 0.0 2.4
12:40 20.6 17.0 80 1012.3 2.2 SW 3.1 0.0 2.4
12:41 20.6 17.0 80 1012.2 2.2 W 3.1 0.0 2.4
12:42 20.6 17.0 80 1012.1 2.2 W 3.1 0.0 2.4
12:43 20.6 17.0 80 1012.3 3.1 S 3.1 0.0 2.4
12:44 20.6 17.0 80 1012.1 3.8 S 3.8 0.0 2.4
12:45 20.7 17.1 80 1012.1 3.8 NE 3.8 0.0 2.4
12:46 20.7 17.1 80 1012.2 3.1 SE 3.8 0.0 2.4
12:47 20.7 17.1 80 1012.2 2.2 NW 3.8 0.0 2.4
12:48 20.7 17.1 80 1012.4 1.6 N 3.8 0.0 2.4
12:49 20.7 17.1 80 1012.1 1.6 SW 3.8 0.0 2.4
12:50 20.7 17.1 80 1012.1 1.6 SW 3.8 0.0 2.4
12:51 20.7 17.1 80 1012.2 2.2 S 3.8 0.0 2.4
12:52 20.7 16.9 79 1012.3 3.1 SW 3.8 0.0 2.4
12:53 20.7 16.9 79 1012.3 3.1 S 3.8 0.0 2.4
12:54 20.7 16.9 79 1012.2 2.2 S 3.8 0.0 2.4
12:55 20.6 16.8 79 1012.4 1.6 W 3.8 0.0 2.4
12:56 20.7 16.9 79 1012.3 2.2 NW 3.1 0.0 2.4
12:57 20.7 17.1 80 1012.3 1.6 W 3.1 0.0 2.4
12:58 20.8 17.2 80 1012.2 1.6 E 3.1 0.0 2.4
12:59 20.8 17.2 80 1012.0 2.2 NE 3.1 0.0 2.4
13:00 20.9 17.3 80 1012.3 3.1 E 3.1 0.0 2.4
13:01 20.9 17.3 80 1012.3 3.1 E 3.1 0.0 2.4
13:02 20.9 17.3 80 1012.3 3.1 E 3.1 0.0 2.4
13:03 20.9 17.3 80 1012.3 3.1 E 3.1 0.0 2.4
13:04 20.9 17.3 80 1012.3 3.1 E 3.1 0.0 2.4
13:05 20.9 17.3 80 1012.4 3.1 E 3.1 0.0 2.4
13:06 21.3 17.7 80 1012.5 3.8 S 3.8 0.0 2.4
13:07 21.3 17.7 80 1012.3 3.1 SW 3.8 0.0 2.4
13:08 21.4 17.8 80 1012.4 2.2 NE 3.8 0.0 2.4
13:09 21.4 17.6 79 1012.5 2.2 N 3.8 0.0 2.4
13:10 21.5 17.7 79 1012.4 2.2 NE 3.8 0.0 2.4
13:11 21.5 17.7 79 1012.2 3.1 S 3.8 0.0 2.4
13:12 21.6 17.8 79 1012.4 2.2 S 3.8 0.0 2.4
13:14 21.7 17.9 79 1012.4 1.6 NE 3.8 0.0 2.4
13:15 21.7 17.7 78 1012.5 2.2 S 3.8 0.0 2.4
13:16 21.7 17.7 78 1012.4 2.2 NE 3.1 0.0 2.4
13:17 21.7 17.7 78 1012.5 3.1 S 3.1 0.0 2.4
13:18 21.8 17.8 78 1012.5 3.1 SE 3.1 0.0 2.4
13:19 21.9 18.1 79 1012.4 2.2 NE 3.1 0.0 2.4
13:20 22.0 18.2 79 1012.4 3.1 NE 3.1 0.0 2.4
13:21 22.1 18.1 78 1012.3 1.6 NE 3.1 0.0 2.4
13:22 22.0 17.8 77 1012.5 2.2 NE 3.1 0.0 2.4
13:23 22.0 17.8 77 1012.4 3.8 E 3.8 0.0 2.4
13:24 22.1 17.9 77 1012.4 3.8 W 3.8 0.0 2.4
13:25 22.1 17.7 76 1012.3 3.1 S 3.8 0.0 2.4
13:26 22.1 17.7 76 1012.4 3.1 E 3.8 0.0 2.4
13:27 22.3 18.3 78 1012.4 2.2 S 3.8 0.0 2.4
13:28 22.4 18.2 77 1012.6 3.8 S 3.8 0.0 2.4
13:29 22.4 18.2 77 1012.6 3.8 SW 3.8 0.0 2.4
13:30 22.3 17.9 76 1012.6 3.8 SW 3.8 0.0 2.4
13:31 22.3 17.7 75 1012.5 3.1 E 3.8 0.0 2.4
13:32 22.3 17.7 75 1012.7 3.1 NE 3.8 0.0 2.4
13:33 22.4 18.0 76 1012.4 3.1 E 3.8 0.0 2.4
13:34 22.4 18.0 76 1012.6 4.5 E 4.5 0.0 2.4
13:35 22.4 18.0 76 1012.2 4.5 E 4.5 0.0 2.4
13:36 22.4 18.0 76 1012.5 4.5 E 4.5 0.0 2.4
13:37 22.9 17.8 73 1012.4 4.5 S 4.5 0.0 2.4
13:38 22.9 17.8 73 1012.6 4.5 S 4.5 0.0 2.4
13:39 22.9 17.8 73 1012.5 6.0 SE 6.0 0.0 2.4
13:40 22.9 17.6 72 1012.6 4.5 S 6.0 0.0 2.4
13:41 22.9 17.6 72 1012.3 4.5 S 6.0 0.0 2.4
13:42 22.9 17.6 72 1012.5 6.0 W 6.0 0.0 2.4
13:43 22.9 17.6 72 1012.4 3.1 NE 6.0 0.0 2.4
13:44 23.0 17.7 72 1012.4 3.8 S 6.0 0.0 2.4
13:45 23.1 18.0 73 1012.6 2.2 NE 6.0 0.0 2.4
13:46 23.4 18.3 73 1012.5 5.4 S 6.0 0.0 2.4
13:47 23.5 18.2 72 1012.4 6.0 S 6.0 0.0 2.4
13:48 23.5 18.2 72 1012.5 4.5 W 6.0 0.0 2.4
13:49 23.5 18.2 72 1012.3 3.8 SW 6.0 0.0 2.4
13:50 23.5 18.0 71 1012.3 2.2 S 6.0 0.0 2.4
13:51 23.5 18.0 71 1012.6 1.6 SE 6.0 0.0 2.4
13:52 23.4 17.6 70 1012.4 2.2 S 6.0 0.0 2.4
13:53 23.3 17.5 70 1012.5 2.2 E 6.0 0.0 2.4
13:54 23.3 17.5 70 1012.4 3.1 S 6.0 0.0 2.4
13:55 23.2 17.7 71 1012.5 3.8 E 6.0 0.0 2.4
13:56 23.2 17.7 71 1012.5 2.2 NE 6.0 0.0 2.4
13:57 23.2 17.7 71 1012.6 3.1 ESE 6.0 0.0 2.4
13:58 23.1 17.6 71 1012.4 4.5 SE 4.5 0.0 2.4
13:59 23.2 17.7 71 1012.5 5.4 S 5.4 0.0 2.4
14:00 23.2 17.7 71 1012.5 5.4 S 5.4 0.0 2.4
14:01 23.2 17.7 71 1012.5 5.4 S 5.4 0.0 2.4
14:02 23.2 17.7 71 1012.5 5.4 S 5.4 0.0 2.4
14:03 23.2 17.7 71 1012.4 5.4 S 5.4 0.0 2.4
14:04 23.2 17.7 71 1012.4 5.4 S 5.4 0.0 2.4
14:05 23.3 17.8 71 1012.4 6.9 S 6.9 0.0 2.4
14:06 23.3 17.8 71 1012.6 2.2 S 6.9 0.0 2.4
14:07 23.3 17.8 71 1012.3 4.5 S 6.9 0.0 2.4
14:08 23.4 17.9 71 1012.5 5.4 S 6.9 0.0 2.4
14:09 23.4 17.9 71 1012.3 3.1 S 6.9 0.0 2.4
14:10 23.4 17.9 71 1012.4 3.1 S 6.9 0.0 2.4
14:11 23.3 17.8 71 1012.4 3.8 E 6.9 0.0 2.4
14:12 23.3 17.5 70 1012.5 3.1 S 6.9 0.0 2.4
14:13 23.2 17.4 70 1012.3 3.1 E 6.9 0.0 2.4
14:14 23.3 17.8 71 1012.3 3.1 N 6.9 0.0 2.4
14:15 23.3 17.8 71 1012.4 3.1 S 6.9 0.0 2.4
14:16 23.4 17.9 71 1012.3 2.2 SW 5.4 0.0 2.4
14:17 23.5 18.0 71 1012.3 5.4 E 5.4 0.0 2.4
14:18 23.6 18.3 72 1012.4 5.4 S 5.4 0.0 2.4
14:19 23.7 18.1 71 1012.5 3.8 SW 5.4 0.0 2.4
14:20 23.8 18.2 71 1012.2 6.0 S 6.0 0.0 2.4
14:21 23.9 18.3 71 1012.3 8.3 SW 8.3 0.0 2.4
14:22 23.8 18.0 70 1012.4 6.0 E 8.3 0.0 2.4
14:23 23.8 18.0 70 1012.3 7.6 SW 8.3 0.0 2.4
14:24 23.7 17.9 70 1012.2 7.6 S 8.3 0.0 2.4
14:25 23.7 17.9 70 1012.3 6.9 SW 8.3 0.0 2.4
14:26 23.7 17.9 70 1012.5 6.9 SW 8.3 0.0 2.4
14:27 23.7 17.9 70 1012.2 4.5 NW 8.3 0.0 2.4
14:28 23.7 18.1 71 1012.2 4.5 S 8.3 0.0 2.4
14:29 23.9 18.3 71 1012.3 5.4 SE 8.3 0.0 2.4
14:30 24.0 18.4 71 1012.2 4.5 SW 8.3 0.0 2.4
14:31 24.0 18.4 71 1012.3 5.4 S 7.6 0.0 2.4
14:32 24.0 18.4 71 1012.5 3.1 SE 7.6 0.0 2.4
14:33 24.0 18.2 70 1012.1 3.1 W 7.6 0.0 2.4
14:34 24.0 18.2 70 1012.4 3.1 E 7.6 0.0 2.4
14:35 23.9 18.1 70 1012.4 2.2 SW 6.9 0.0 2.4
14:36 23.9 17.9 69 1012.2 4.5 S 6.0 0.0 2.4
14:37 23.8 17.8 69 1012.0 3.8 W 5.4 0.0 2.4
14:38 23.8 17.6 68 1012.4 3.1 S 5.4 0.0 2.4
14:39 23.6 17.6 69 1012.2 3.8 W 5.4 0.0 2.4
14:40 23.6 17.8 70 1012.5 1.6 E 5.4 0.0 2.4
14:41 23.6 17.8 70 1012.2 5.4 S 5.4 0.0 2.4
14:42 23.8 18.2 71 1012.4 6.0 SE 9.2 0.0 2.4
14:43 23.9 18.3 71 1012.3 5.4 S 9.2 0.0 2.4
14:44 23.9 18.1 70 1012.1 3.1 SW 9.2 0.0 2.4
14:45 23.9 18.1 70 1012.3 4.5 S 9.2 0.0 2.4
14:46 23.9 18.1 70 1012.1 3.1 S 9.2 0.0 2.4
14:47 23.9 18.1 70 1012.0 6.9 SW 9.2 0.0 2.4
14:48 23.9 18.1 70 1012.0 6.9 SW 9.2 0.0 2.4
14:49 24.1 18.3 70 1012.0 5.4 SW 9.2 0.0 2.4
14:50 24.1 18.3 70 1012.1 4.5 W 9.2 0.0 2.4
14:51 24.2 18.4 70 1012.1 6.0 SW 9.2 0.0 2.4
14:52 24.1 18.3 70 1012.0 6.0 SW 9.2 0.0 2.4
14:53 24.1 18.3 70 1011.8 6.0 S 6.9 0.0 2.4
14:54 24.1 18.3 70 1012.1 6.0 S 6.9 0.0 2.4
14:55 24.2 18.2 69 1012.1 3.8 SW 6.9 0.0 2.4
14:56 24.1 18.1 69 1012.0 5.4 S 6.9 0.0 2.4
14:57 24.2 18.4 70 1012.2 3.8 S 6.9 0.0 2.4
14:58 24.3 18.7 71 1012.1 6.0 SW 6.0 0.0 2.4
14:59 24.4 18.8 71 1012.0 5.4 S 6.0 0.0 2.4
15:00 24.5 18.7 70 1012.2 6.9 S 6.9 0.0 2.4
15:01 24.5 18.7 70 1012.0 6.9 S 6.9 0.0 2.4
15:02 24.5 18.7 70 1012.3 6.9 S 6.9 0.0 2.4
15:03 24.5 18.7 70 1012.3 6.9 S 6.9 0.0 2.4
15:04 24.5 18.7 70 1012.1 6.9 S 6.9 0.0 2.4
15:05 24.5 18.7 70 1012.1 6.9 S 6.9 0.0 2.4
15:06 24.5 18.5 69 1012.2 7.6 S 7.6 0.0 2.4
15:07 24.5 18.2 68 1012.3 6.9 W 7.6 0.0 2.4
15:08 24.5 18.7 70 1012.1 6.9 S 7.6 0.0 2.4
15:09 24.5 18.7 70 1012.0 5.4 SW 7.6 0.0 2.4
15:10 24.6 18.8 70 1012.0 6.0 S 7.6 0.0 2.4
15:11 24.7 18.9 70 1012.3 5.4 S 7.6 0.0 2.4
15:12 24.7 18.9 70 1012.0 5.4 S 7.6 0.0 2.4
15:14 24.7 18.9 70 1012.0 6.0 S 7.6 0.0 2.4
15:15 24.8 19.0 70 1012.1 7.6 SW 7.6 0.0 2.4
15:16 24.8 18.7 69 1012.2 7.6 W 7.6 0.0 2.4
15:17 24.8 18.5 68 1012.1 5.4 SW 7.6 0.0 2.4
15:18 24.7 18.4 68 1012.1 3.8 S 7.6 0.0 2.4
15:19 24.5 18.0 67 1012.2 3.8 S 7.6 0.0 2.4
15:20 24.3 17.8 67 1012.2 6.0 S 7.6 0.0 2.4
15:21 24.2 17.9 68 1012.0 6.9 S 7.6 0.0 2.4
15:22 24.2 17.9 68 1011.6 6.9 S 7.6 0.0 2.4
15:23 24.2 18.2 69 1012.0 6.9 W 7.6 0.0 2.4
15:24 24.3 18.5 70 1012.2 5.4 S 7.6 0.0 2.4
15:25 24.5 18.7 70 1012.2 6.0 S 7.6 0.0 2.4
15:26 24.6 18.8 70 1012.2 6.9 SW 6.9 0.0 2.4
15:27 24.6 18.8 70 1012.2 6.9 SW 6.9 0.0 2.4
15:28 24.6 18.6 69 1012.1 6.9 SW 6.9 0.0 2.4
15:29 24.6 18.3 68 1012.1 6.0 SW 6.9 0.0 2.4
15:30 24.6 18.6 69 1012.1 6.0 SE 6.9 0.0 2.4
15:31 24.6 18.3 68 1012.1 3.8 SE 6.9 0.0 2.4
15:32 24.7 18.4 68 1012.0 6.9 S 6.9 0.0 2.4
15:33 24.8 18.3 67 1012.1 6.9 S 6.9 0.0 2.4
15:34 24.8 18.3 67 1012.1 6.9 S 6.9 0.0 2.4
15:35 24.8 18.3 67 1012.1 6.9 S 6.9 0.0 2.4
15:36 24.7 17.9 66 1012.1 5.4 S 6.9 0.0 2.4
15:37 24.6 17.8 66 1012.1 5.4 S 6.9 0.0 2.4
15:38 24.5 17.8 66 1012.3 3.1 N 6.9 0.0 2.4
15:39 24.5 17.8 66 1012.0 3.1 S 6.9 0.0 2.4
15:40 24.5 17.8 66 1012.1 3.1 S 6.9 0.0 2.4
15:41 24.7 18.7 69 1012.1 6.9 S 6.9 0.0 2.4
15:42 24.8 18.7 69 1012.0 6.9 W 6.9 0.0 2.4
15:43 24.8 18.7 69 1012.0 6.9 W 6.9 0.0 2.4
15:44 24.9 18.6 68 1012.2 6.0 S 6.9 0.0 2.4
15:45 24.9 18.8 69 1012.1 3.8 SW 6.9 0.0 2.4
15:46 25.0 18.7 68 1012.1 4.5 S 6.9 0.0 2.4
15:47 25.0 18.7 68 1011.9 5.4 SW 6.9 0.0 2.4
15:48 25.0 18.7 68 1012.0 6.9 S 6.9 0.0 2.4
15:49 25.0 18.5 67 1012.0 7.6 S 7.6 0.0 2.4
15:50 25.1 18.6 67 1012.1 7.6 SE 7.6 0.0 2.4
15:51 25.1 18.6 67 1011.9 7.6 SSW 7.6 0.0 2.4
15:52 25.1 18.3 66 1012.1 3.8 SW 7.6 0.0 2.4
15:53 25.0 18.2 66 1012.1 5.4 SW 7.6 0.0 2.4
15:54 25.0 18.0 65 1012.0 5.4 SW 7.6 0.0 2.4
15:55 25.0 18.0 65 1012.0 5.4 SW 7.6 0.0 2.4
15:56 25.0 18.5 67 1011.9 6.9 S 7.6 0.0 2.4
15:57 25.0 18.7 68 1012.0 5.4 SW 7.6 0.0 2.4
15:58 25.0 18.5 67 1011.9 5.4 W 7.6 0.0 2.4
15:59 25.0 18.7 68 1011.8 6.0 S 7.6 0.0 2.4
16:00 24.9 17.9 65 1012.0 4.5 SW 7.6 0.0 2.4
16:01 24.9 17.9 65 1011.9 4.5 SW 7.6 0.0 2.4
16:02 24.9 17.9 65 1011.9 4.5 SW 6.9 0.0 2.4
16:03 24.5 18.0 67 1011.9 4.5 SW 6.9 0.0 2.4
16:04 24.5 18.0 67 1012.0 6.0 S 6.9 0.0 2.4
16:05 24.5 17.8 66 1012.0 8.3 S 8.3 0.0 2.4
16:06 24.4 17.7 66 1012.0 8.3 S 8.3 0.0 2.4
16:07 24.4 17.7 66 1012.1 7.6 SW 8.3 0.0 2.4
16:08 24.3 17.8 67 1012.0 6.0 S 8.3 0.0 2.4
16:09 24.4 18.1 68 1012.0 4.5 S 8.3 0.0 2.4
16:10 24.4 18.1 68 1012.0 4.5 S 8.3 0.0 2.4
16:11 24.4 18.1 68 1012.1 5.4 S 8.3 0.0 2.4
16:12 24.4 17.7 66 1011.9 3.8 SW 8.3 0.0 2.4
16:13 24.4 17.7 66 1012.0 5.4 SW 8.3 0.0 2.4
16:14 24.4 17.7 66 1012.0 4.5 W 8.3 0.0 2.4
16:15 24.4 18.1 68 1011.9 3.8 SW 8.3 0.0 2.4
16:16 24.5 18.2 68 1011.9 3.8 S 8.3 0.0 2.4
16:17 24.7 18.4 68 1012.0 5.4 S 7.6 0.0 2.4
16:18 24.8 18.3 67 1012.0 5.4 S 6.0 0.0 2.4
16:19 24.8 18.0 66 1012.1 5.4 SW 5.4 0.0 2.4
16:20 24.7 17.7 65 1011.9 4.5 S 5.4 0.0 2.4
16:21 24.7 17.9 66 1012.0 6.0 SW 6.0 0.0 2.4
16:22 24.7 17.9 66 1011.9 6.0 W 6.0 0.0 2.4
16:23 24.8 18.0 66 1012.1 3.1 SW 6.0 0.0 2.4
16:24 24.8 18.0 66 1012.1 5.4 SW 6.0 0.0 2.4
16:25 24.9 18.1 66 1012.1 5.4 SW 6.0 0.0 2.4
16:26 24.9 18.4 67 1012.1 4.5 SW 6.0 0.0 2.4
16:27 24.9 18.1 66 1012.0 4.5 SW 6.0 0.0 2.4
16:28 24.9 18.1 66 1012.0 5.4 SW 6.0 0.0 2.4
16:29 25.0 18.2 66 1011.9 4.5 W 6.0 0.0 2.4
16:30 25.0 18.2 66 1012.1 4.5 SW 6.0 0.0 2.4
16:31 25.1 18.3 66 1011.9 5.4 S 6.0 0.0 2.4
16:32 25.1 18.1 65 1011.9 5.4 SW 6.0 0.0 2.4
16:33 25.0 17.5 63 1012.0 5.4 S 6.0 0.0 2.4
16:34 24.9 17.6 64 1012.1 5.4 SE 6.0 0.0 2.4
16:35 24.8 17.5 64 1012.2 3.1 SE 6.0 0.0 2.4
16:36 24.7 17.5 64 1012.0 2.2 S 6.0 0.0 2.4
16:37 24.7 17.5 64 1012.1 2.2 S 6.0 0.0 2.4
16:38 24.6 17.4 64 1012.1 2.2 SE 6.0 0.0 2.4
16:39 24.6 17.4 64 1012.1 2.2 SE 6.0 0.0 2.4
16:40 24.6 17.6 65 1012.1 3.8 SW 6.0 0.0 2.4
16:41 24.6 17.8 66 1012.1 5.4 S 5.4 0.0 2.4
16:42 24.5 17.5 65 1012.0 5.4 SW 5.4 0.0 2.4
16:43 24.6 17.8 66 1012.4 5.4 SW 5.4 0.0 2.4
16:44 24.7 18.2 67 1012.2 5.4 SW 6.0 0.0 2.4
16:45 24.8 18.0 66 1011.9 4.5 S 6.0 0.0 2.4
16:46 24.9 18.1 66 1012.1 4.5 W 6.0 0.0 2.4
16:47 24.9 18.1 66 1012.1 3.8 SW 6.0 0.0 2.4
16:48 24.9 17.9 65 1012.3 4.5 SW 6.0 0.0 2.4
16:49 24.9 17.9 65 1012.1 5.4 SW 6.0 0.0 2.4
16:50 24.9 17.9 65 1012.2 4.5 W 6.0 0.0 2.4
16:51 24.9 17.9 65 1012.2 3.8 W 6.0 0.0 2.4
16:52 24.8 17.8 65 1012.3 5.4 SW 6.0 0.0 2.4
16:53 24.8 17.8 65 1012.2 5.4 SW 6.0 0.0 2.4
16:54 24.8 17.8 65 1012.2 4.5 S 5.4 0.0 2.4
16:55 24.8 17.8 65 1012.2 5.4 SW 5.4 0.0 2.4
16:56 24.8 18.0 66 1012.1 3.1 E 5.4 0.0 2.4
16:57 24.8 17.8 65 1012.2 1.6 SE 5.4 0.0 2.4
16:58 24.8 17.8 65 1012.4 2.2 E 5.4 0.0 2.4
16:59 24.9 18.1 66 1012.1 2.2 SW 5.4 0.0 2.4
17:00 25.0 18.2 66 1012.4 3.8 S 5.4 0.0 2.4
17:01 25.0 18.2 66 1012.2 3.8 S 5.4 0.0 2.4
17:02 25.0 18.2 66 1012.2 3.8 S 5.4 0.0 2.4
17:03 25.0 18.2 66 1012.2 3.8 S 5.4 0.0 2.4
17:04 25.0 18.2 66 1012.3 3.8 S 5.4 0.0 2.4
17:05 24.7 17.5 64 1012.4 5.4 S 5.4 0.0 2.4
17:06 24.7 17.5 64 1012.4 5.4 S 5.4 0.0 2.4
17:07 24.7 17.7 65 1012.3 4.5 SW 5.4 0.0 2.4
17:08 24.5 17.3 64 1012.2 6.0 S 6.0 0.0 2.4
17:09 24.4 17.2 64 1012.2 6.0 S 6.0 0.0 2.4
17:10 24.4 17.2 64 1012.4 6.0 S 6.0 0.0 2.4
17:11 24.3 17.3 65 1012.1 4.5 S 6.0 0.0 2.4
17:12 24.2 17.2 65 1012.5 3.8 SW 6.0 0.0 2.4
17:13 24.2 17.2 65 1012.2 3.8 SW 6.0 0.0 2.4
17:14 24.1 17.4 66 1012.3 3.1 SW 6.0 0.0 2.4
17:15 24.1 17.6 67 1012.4 3.1 SW 6.0 0.0 2.4
17:16 24.0 17.3 66 1012.3 3.1 S 6.0 0.0 2.4
17:17 24.0 17.3 66 1012.2 2.2 SE 6.0 0.0 2.4
17:18 24.0 17.3 66 1012.3 4.5 S 6.0 0.0 2.4
17:19 24.0 17.3 66 1012.4 3.8 S 6.0 0.0 2.4
17:20 23.9 17.2 66 1012.3 3.8 S 4.5 0.0 2.4
17:21 23.9 17.2 66 1012.3 3.1 S 4.5 0.0 2.4
17:22 23.8 17.1 66 1012.4 3.1 N 4.5 0.0 2.4
17:23 23.8 17.3 67 1012.6 2.2 SE 4.5 0.0 2.4
17:24 23.8 17.6 68 1012.4 2.2 W 4.5 0.0 2.4
17:25 23.9 17.9 69 1012.5 3.1 SE 4.5 0.0 2.4
17:26 23.9 17.9 69 1012.4 3.8 SE 4.5 0.0 2.4
17:27 23.9 17.9 69 1012.4 4.5 S 4.5 0.0 2.4
17:28 23.8 17.8 69 1012.5 3.1 SW 4.5 0.0 2.4
17:29 23.8 17.8 69 1012.4 2.2 NE 4.5 0.0 2.4
17:30 23.8 17.8 69 1012.4 2.2 NE 4.5 0.0 2.4
17:31 23.8 17.8 69 1012.5 1.6 W 4.5 0.0 2.4
17:32 23.7 17.9 70 1012.5 3.8 SW 4.5 0.0 2.4
17:33 23.7 17.9 70 1012.6 3.8 S 4.5 0.0 2.4
17:34 23.7 17.9 70 1012.3 3.8 S 4.5 0.0 2.4
17:35 23.6 17.6 69 1012.8 1.6 S 4.5 0.0 2.4
17:36 23.5 17.5 69 1012.4 1.6 W 4.5 0.0 2.4
17:37 23.5 17.5 69 1012.6 1.6 S 4.5 0.0 2.4
17:38 23.5 17.5 69 1012.4 1.6 S 3.8 0.0 2.4
17:39 23.5 17.5 69 1012.4 2.2 SW 3.8 0.0 2.4
17:40 23.4 17.4 69 1012.4 1.6 NW 3.8 0.0 2.4
17:41 23.4 17.6 70 1012.3 1.6 S 3.8 0.0 2.4
17:42 23.4 17.6 70 1012.2 2.2 NE 3.8 0.0 2.4
17:43 23.4 17.6 70 1012.2 2.2 NE 3.8 0.0 2.4
17:48 23.5 17.5 69 1012.5 3.1 W 3.1 0.0 2.4
17:49 23.4 17.4 69 1012.6 3.1 WSW 3.1 0.0 2.4
17:50 23.4 17.4 69 1012.8 3.1 S 3.1 0.0 2.4
17:51 23.4 17.4 69 1012.8 3.1 S 3.1 0.0 2.4
17:52 23.3 17.3 69 1012.7 3.1 SW 3.1 0.0 2.4
17:54 23.2 17.4 70 1012.6 2.2 S 3.1 0.0 2.4
17:55 23.2 17.4 70 1012.6 3.1 S 3.1 0.0 2.4
17:56 23.2 17.4 70 1012.7 3.1 S 3.1 0.0 2.4
17:57 23.2 17.4 70 1012.7 3.1 S 3.1 0.0 2.4
17:58 23.2 17.4 70 1012.6 2.2 SW 3.1 0.0 2.4
17:59 23.2 17.4 70 1012.5 2.2 NW 3.1 0.0 2.4
18:00 23.2 17.4 70 1012.5 3.8 W 3.8 0.0 2.4
18:01 23.2 17.4 70 1012.7 3.8 W 3.8 0.0 2.4
18:02 23.2 17.4 70 1012.6 3.8 W 3.8 0.0 2.4
18:03 23.2 17.4 70 1012.7 3.8 W 3.8 0.0 2.4
18:04 23.2 17.4 70 1012.6 3.8 W 3.8 0.0 2.4
18:05 22.9 17.2 70 1012.6 6.9 W 6.9 0.0 2.4
18:06 22.9 17.2 70 1012.7 3.8 W 6.9 0.0 2.4
18:08 22.7 17.0 70 1012.5 4.5 W 6.9 0.0 2.4
18:09 22.7 17.2 71 1012.5 3.8 W 6.9 0.0 2.4
18:10 22.7 17.2 71 1012.6 3.1 SW 6.9 0.0 2.4
18:11 22.7 17.2 71 1012.6 4.5 W 6.9 0.0 2.4
18:12 22.7 17.2 71 1012.6 3.8 W 6.9 0.0 2.4
18:13 22.7 17.2 71 1012.5 4.5 W 6.9 0.0 2.4
18:14 22.6 17.1 71 1012.8 4.5 W 6.9 0.0 2.4
18:15 22.6 17.1 71 1012.4 4.5 W 6.9 0.0 2.4
18:16 22.6 17.1 71 1012.6 5.4 W 5.4 0.0 2.4
18:17 22.6 17.1 71 1012.7 5.4 SW 5.4 0.0 2.4
18:18 22.6 17.1 71 1012.6 3.8 SW 5.4 0.0 2.4
18:19 22.5 17.0 71 1012.6 3.8 SW 5.4 0.0 2.4
18:20 22.5 17.0 71 1012.5 4.5 W 5.4 0.0 2.4
18:21 22.5 17.0 71 1012.8 3.8 WSW 5.4 0.0 2.4
18:23 22.4 17.3 73 1012.6 4.5 W 5.4 0.0 2.4
18:24 22.4 17.3 73 1012.4 3.1 NW 5.4 0.0 2.4
18:25 22.4 17.3 73 1012.5 3.1 N 5.4 0.0 2.4
18:26 22.4 17.3 73 1012.5 3.1 N 5.4 0.0 2.4
18:27 22.4 17.3 73 1012.5 3.1 N 5.4 0.0 2.4
18:28 22.3 17.2 73 1012.5 5.4 W 5.4 0.0 2.4
18:29 22.3 17.2 73 1012.5 4.5 SW 5.4 0.0 2.4
18:30 22.3 17.2 73 1012.6 4.5 W 5.4 0.0 2.4
18:31 22.3 17.2 73 1012.4 5.4 W 5.4 0.0 2.4
18:32 22.3 17.5 74 1012.4 5.4 W 5.4 0.0 2.4
18:33 22.2 17.4 74 1012.3 6.0 W 6.0 0.0 2.4
18:34 22.2 17.4 74 1012.3 6.0 W 6.0 0.0 2.4
18:35 22.2 17.4 74 1012.5 3.8 W 6.0 0.0 2.4
18:37 22.1 17.3 74 1012.4 5.4 W 6.0 0.0 2.4
18:38 22.1 17.3 74 1012.5 5.4 NW 6.0 0.0 2.4
18:39 22.1 17.3 74 1012.3 5.4 NW 6.0 0.0 2.4
18:40 22.0 17.2 74 1012.4 5.4 N 6.0 0.0 2.4
18:41 22.0 17.2 74 1012.4 5.4 N 6.0 0.0 2.4
18:42 21.9 17.1 74 1012.5 4.5 WNW 6.0 0.0 2.4
18:43 21.9 17.1 74 1012.4 4.5 NW 6.0 0.0 2.4
18:44 21.9 17.1 74 1012.4 3.1 N 6.0 0.0 2.4
18:45 21.9 17.1 74 1012.4 4.5 NW 5.4 0.0 2.4
18:46 21.8 17.0 74 1012.5 3.8 NW 5.4 0.0 2.4
18:47 21.8 17.0 74 1012.5 3.8 NW 5.4 0.0 2.4
18:48 21.8 17.0 74 1012.4 3.8 NW 5.4 0.0 2.4
18:49 21.8 17.0 74 1012.3 3.8 NW 5.4 0.0 2.4
18:51 21.8 17.0 74 1012.3 2.2 NW 5.4 0.0 2.4
18:52 21.8 17.0 74 1012.4 3.1 W 4.5 0.0 2.4
18:53 21.7 16.9 74 1012.5 3.8 W 4.5 0.0 2.4
18:54 21.7 16.9 74 1012.2 3.1 W 4.5 0.0 2.4
18:55 21.7 17.1 75 1012.3 3.8 W 4.5 0.0 2.4
18:56 21.7 17.1 75 1012.5 3.8 W 4.5 0.0 2.4
18:57 21.7 17.1 75 1012.2 3.8 W 4.5 0.0 2.4
18:58 21.6 17.0 75 1012.5 3.1 W 4.5 0.0 2.4
18:59 21.6 17.0 75 1012.4 4.5 NW 4.5 0.0 2.4
19:00 21.6 17.0 75 1012.3 3.8 W 4.5 0.0 2.4
19:01 21.6 17.0 75 1012.5 3.8 W 4.5 0.0 2.4
19:02 21.6 17.0 75 1012.6 4.5 W 4.5 0.0 2.4
19:03 21.6 17.0 75 1012.4 4.5 W 4.5 0.0 2.4
19:04 21.5 16.9 75 1012.3 3.8 NW 4.5 0.0 2.4
19:06 21.5 16.9 75 1012.5 4.5 NW 4.5 0.0 2.4
19:07 21.5 16.9 75 1012.5 3.8 N 4.5 0.0 2.4
19:08 21.5 16.9 75 1012.4 5.4 NW 5.4 0.0 2.4
19:09 21.5 16.9 75 1012.5 4.5 NW 5.4 0.0 2.4
19:10 21.5 16.9 75 1012.6 5.4 NW 5.4 0.0 2.4
19:11 21.5 16.9 75 1012.4 5.4 NW 5.4 0.0 2.4
19:12 21.5 16.9 75 1012.6 3.8 NW 5.4 0.0 2.4
19:13 21.5 16.9 75 1012.2 2.2 NW 5.4 0.0 2.4
19:14 21.5 17.1 76 1012.4 3.8 NW 5.4 0.0 2.4
19:15 21.4 17.0 76 1012.3 4.5 N 5.4 0.0 2.4
19:16 21.4 17.0 76 1012.5 2.2 N 5.4 0.0 2.4
19:17 21.4 17.0 76 1012.6 5.4 N 5.4 0.0 2.4
19:18 21.4 17.0 76 1012.5 5.4 N 5.4 0.0 2.4
19:19 21.4 17.0 76 1012.8 5.4 NW 5.4 0.0 2.4
19:20 21.4 17.0 76 1012.4 3.1 NW 5.4 0.0 2.4
19:21 21.4 17.0 76 1012.4 3.8 NW 5.4 0.0 2.4
19:22 21.4 17.0 76 1012.6 4.5 NE 5.4 0.0 2.4
19:23 21.4 17.0 76 1012.5 6.0 NW 6.0 0.0 2.4
19:24 21.4 17.0 76 1012.5 4.5 WNW 6.0 0.0 2.4
19:26 21.3 16.9 76 1012.6 5.4 N 6.0 0.0 2.4
19:27 21.3 16.9 76 1012.6 5.4 W 6.0 0.0 2.4
19:28 21.3 16.9 76 1012.6 5.4 NW 6.0 0.0 2.4
19:29 21.3 16.9 76 1012.6 3.8 N 6.0 0.0 2.4
19:30 21.3 16.9 76 1012.3 5.4 N 6.0 0.0 2.4
19:31 21.2 16.8 76 1012.4 5.4 N 6.0 0.0 2.4
19:32 21.2 16.8 76 1012.5 3.8 W 6.0 0.0 2.4
19:33 21.2 16.8 76 1012.5 3.8 NE 6.0 0.0 2.4
19:34 21.2 16.8 76 1012.6 3.8 N 5.4 0.0 2.4
19:35 21.2 16.8 76 1012.7 3.1 N 5.4 0.0 2.4
19:36 21.2 16.8 76 1012.6 4.5 NW 5.4 0.0 2.4
19:37 21.1 16.7 76 1012.6 4.5 NW 5.4 0.0 2.4
19:38 21.1 16.7 76 1012.7 3.1 W 5.4 0.0 2.4
19:40 21.1 16.7 76 1012.6 3.1 W 5.4 0.0 2.4
19:41 21.0 16.6 76 1012.6 3.1 NW 4.5 0.0 2.4
19:42 21.0 16.6 76 1012.5 3.8 W 4.5 0.0 2.4
19:43 21.0 16.6 76 1012.7 3.1 W 4.5 0.0 2.4
19:44 21.0 16.6 76 1012.8 3.1 NW 4.5 0.0 2.4
19:45 21.0 16.6 76 1012.7 3.1 W 4.5 0.0 2.4
19:46 20.9 16.5 76 1012.5 3.8 W 4.5 0.0 2.4
19:47 20.9 16.5 76 1012.5 3.8 W 4.5 0.0 2.4
19:48 20.9 16.5 76 1012.6 3.8 W 4.5 0.0 2.4
19:49 20.8 16.4 76 1012.6 3.8 N 4.5 0.0 2.4
19:50 20.8 16.4 76 1012.6 3.8 W 4.5 0.0 2.4
19:51 20.8 16.4 76 1012.7 4.5 W 4.5 0.0 2.4
19:52 20.7 16.5 77 1012.7 3.1 NW 4.5 0.0 2.4
19:54 20.7 16.5 77 1012.7 3.8 NW 4.5 0.0 2.4
19:55 20.7 16.5 77 1012.8 4.5 N 4.5 0.0 2.4
19:56 20.7 16.5 77 1012.8 2.2 W 4.5 0.0 2.4
19:57 20.6 16.4 77 1012.7 3.1 W 4.5 0.0 2.4
19:58 20.6 16.4 77 1012.7 2.2 W 4.5 0.0 2.4
19:59 20.6 16.4 77 1012.7 3.1 NW 4.5 0.0 2.4
20:00 20.6 16.4 77 1012.6 3.8 NW 4.5 0.0 2.4
20:01 20.6 16.4 77 1012.6 3.8 NW 4.5 0.0 2.4
20:02 20.6 16.4 77 1012.7 3.8 NW 4.5 0.0 2.4
20:03 20.6 16.4 77 1012.8 3.8 NW 4.5 0.0 2.4
20:04 20.6 16.4 77 1013.0 3.8 NW 4.5 0.0 2.4
20:05 20.4 16.2 77 1013.0 5.4 NW 5.4 0.0 2.4
20:06 20.3 16.1 77 1012.6 3.8 NW 5.4 0.0 2.4
20:08 20.3 16.1 77 1012.8 5.4 NW 5.4 0.0 2.4
20:09 20.2 16.1 77 1012.6 5.4 NW 5.4 0.0 2.4
20:10 20.2 16.1 77 1012.7 3.8 NW 5.4 0.0 2.4
20:11 20.1 16.0 77 1012.6 4.5 NW 5.4 0.0 2.4
20:12 20.1 16.0 77 1012.7 4.5 W 5.4 0.0 2.4
20:13 20.1 16.0 77 1012.7 6.0 NW 6.0 0.0 2.4
20:14 20.0 15.9 77 1012.7 3.1 N 6.0 0.0 2.4
20:15 20.0 15.9 77 1012.7 4.5 N 6.0 0.0 2.4
20:16 19.9 15.8 77 1012.7 5.4 NW 6.0 0.0 2.4
20:17 19.9 15.8 77 1012.6 5.4 NW 6.0 0.0 2.4
20:18 19.8 15.7 77 1012.6 5.4 NW 6.0 0.0 2.4
20:19 19.8 15.7 77 1012.7 3.8 W 6.0 0.0 2.4
20:20 19.7 15.6 77 1012.7 4.5 W 6.0 0.0 2.4
20:22 19.7 15.6 77 1012.6 5.4 W 6.0 0.0 2.4
20:23 19.6 15.5 77 1012.6 2.2 W 5.4 0.0 2.4
20:24 19.6 15.5 77 1012.8 3.8 W 5.4 0.0 2.4
20:25 19.5 15.4 77 1012.7 3.8 W 5.4 0.0 2.4
20:26 19.5 15.4 77 1012.6 3.1 W 5.4 0.0 2.4
20:27 19.5 15.4 77 1012.6 3.1 W 5.4 0.0 2.4
20:28 19.5 15.4 77 1012.7 2.2 W 5.4 0.0 2.4
20:29 19.4 15.3 77 1012.7 2.2 N 5.4 0.0 2.4
20:30 19.4 15.5 78 1012.6 3.1 NW 5.4 0.0 2.4
20:31 19.4 15.5 78 1012.5 1.6 W 5.4 0.0 2.4
20:32 19.3 15.4 78 1012.5 2.2 W 5.4 0.0 2.4
20:33 19.3 15.4 78 1012.6 3.1 W 3.8 0.0 2.4
20:34 19.3 15.4 78 1012.7 3.1 W 3.8 0.0 2.4
20:36 19.2 15.3 78 1012.5 3.8 W 3.8 0.0 2.4
20:37 19.2 15.3 78 1012.6 3.8 W 3.8 0.0 2.4
20:38 19.2 15.3 78 1012.5 4.5 W 4.5 0.0 2.4
20:39 19.1 15.4 79 1012.7 3.8 W 4.5 0.0 2.4
20:40 19.1 15.4 79 1012.5 4.5 W 4.5 0.0 2.4
20:41 19.1 15.4 79 1012.5 3.1 W 4.5 0.0 2.4
20:42 19.1 15.4 79 1012.6 3.8 W 4.5 0.0 2.4
20:43 19.0 15.3 79 1012.6 2.2 W 4.5 0.0 2.4
20:44 19.0 15.3 79 1012.6 3.1 NW 4.5 0.0 2.4
20:45 19.0 15.3 79 1012.8 1.6 NW 4.5 0.0 2.4
20:46 19.0 15.5 80 1012.6 3.1 NW 4.5 0.0 2.4
20:47 19.0 15.5 80 1012.8 3.8 NW 4.5 0.0 2.4
20:48 19.0 15.5 80 1012.6 3.8 W 4.5 0.0 2.4
20:50 19.0 15.5 80 1012.7 2.2 W 3.8 0.0 2.4
20:51 19.0 15.5 80 1012.7 3.1 NW 3.8 0.0 2.4
20:52 19.0 15.5 80 1012.7 3.8 NW 3.8 0.0 2.4
20:53 19.0 15.5 80 1012.4 4.5 N 4.5 0.0 2.4
20:54 18.9 15.4 80 1012.6 3.1 NW 4.5 0.0 2.4
20:55 18.9 15.4 80 1012.7 3.1 W 4.5 0.0 2.4
20:56 18.9 15.4 80 1012.5 3.1 N 4.5 0.0 2.4
20:57 18.9 15.4 80 1012.7 2.2 W 4.5 0.0 2.4
20:58 18.9 15.4 80 1012.5 3.1 NW 4.5 0.0 2.4
20:59 18.9 15.4 80 1012.6 4.5 N 4.5 0.0 2.4
21:00 18.9 15.6 81 1012.5 4.5 N 4.5 0.0 2.4
21:01 18.9 15.6 81 1012.8 4.5 N 4.5 0.0 2.4
21:02 18.9 15.6 81 1012.5 4.5 N 4.5 0.0 2.4
21:04 18.9 15.6 81 1012.7 4.5 N 4.5 0.0 2.4
21:05 18.9 15.6 81 1012.8 4.5 N 4.5 0.0 2.4
21:06 18.8 15.5 81 1012.7 2.2 W 4.5 0.0 2.4
21:07 18.8 15.5 81 1012.7 2.2 NW 4.5 0.0 2.4
21:08 18.8 15.5 81 1012.8 2.2 W 4.5 0.0 2.4
21:09 18.8 15.5 81 1012.8 2.2 W 4.5 0.0 2.4
21:10 18.8 15.5 81 1012.6 3.1 W 4.5 0.0 2.4
21:11 18.8 15.5 81 1012.7 3.1 W 4.5 0.0 2.4
21:12 18.8 15.5 81 1012.7 3.1 NW 4.5 0.0 2.4
21:13 18.8 15.5 81 1012.8 3.1 NW 4.5 0.0 2.4
21:14 18.7 15.4 81 1012.5 3.1 NW 4.5 0.0 2.4
21:15 18.7 15.4 81 1012.6 2.2 W 4.5 0.0 2.4
21:16 18.7 15.4 81 1012.9 2.2 W 3.1 0.0 2.4
21:18 18.7 15.4 81 1012.6 2.2 W 3.1 0.0 2.4
21:19 18.7 15.4 81 1012.8 2.2 NW 3.1 0.0 2.4
21:20 18.7 15.4 81 1012.8 2.2 NW 3.1 0.0 2.4
21:22 18.7 15.4 81 1012.8 2.2 NW 3.1 0.0 2.4
21:23 18.7 15.4 81 1012.8 2.2 W 3.1 0.0 2.4
21:24 18.7 15.4 81 1012.8 1.6 W 3.1 0.0 2.4
21:25 18.7 15.4 81 1012.8 1.6 W 3.1 0.0 2.4
21:26 18.7 15.6 82 1012.8 3.8 NW 3.8 0.0 2.4
21:27 18.7 15.6 82 1012.8 3.8 NW 3.8 0.0 2.4
21:28 18.7 15.6 82 1012.7 2.2 NW 3.8 0.0 2.4
21:29 18.7 15.6 82 1012.8 1.6 NW 3.8 0.0 2.4
21:30 18.7 15.6 82 1013.0 0.7 NW 3.8 0.0 2.4
21:31 18.7 15.6 82 1013.0 0.7 SW 3.8 0.0 2.4
21:32 18.7 15.6 82 1012.9 0.7 SW 3.8 0.0 2.4
21:33 18.7 15.6 82 1012.9 0.7 WNW 3.8 0.0 2.4
21:34 18.7 15.6 82 1012.8 1.6 NW 3.8 0.0 2.4
21:36 18.7 15.6 82 1012.9 0.7 NW 3.8 0.0 2.4
21:37 18.7 15.6 82 1012.9 0.0 WNW 2.2 0.0 2.4
21:38 18.7 15.6 82 1013.0 3.1 NW 3.1 0.0 2.4
21:39 18.7 15.6 82 1013.1 3.1 NW 3.1 0.0 2.4
21:40 18.7 15.6 82 1012.8 1.6 NW 3.1 0.0 2.4
21:41 18.7 15.6 82 1013.1 1.6 NW 3.1 0.0 2.4
21:42 18.7 15.6 82 1013.0 3.1 N 3.1 0.0 2.4
21:43 18.7 15.6 82 1013.0 1.6 N 3.1 0.0 2.4
21:44 18.7 15.6 82 1013.3 1.6 N 3.1 0.0 2.4
21:45 18.7 15.8 83 1013.1 1.6 NW 3.1 0.0 2.4
21:46 18.7 15.8 83 1013.1 0.7 NW 3.1 0.0 2.4
21:47 18.7 15.8 83 1013.1 1.6 NW 3.1 0.0 2.4
21:48 18.7 15.8 83 1013.1 1.6 W 3.1 0.0 2.4
21:50 18.6 15.7 83 1013.0 1.6 W 3.1 0.0 2.4
21:51 18.6 15.7 83 1012.9 1.6 W 3.1 0.0 2.4
21:52 18.6 15.7 83 1013.1 2.2 SW 3.1 0.0 2.4
21:53 18.6 15.7 83 1013.1 2.2 SW 2.2 0.0 2.4
21:54 18.6 15.7 83 1012.9 2.2 SW 2.2 0.0 2.4
21:55 18.6 15.7 83 1013.2 2.2 SW 2.2 0.0 2.4
21:56 18.6 15.7 83 1012.9 2.2 SW 2.2 0.0 2.4
21:57 18.5 15.6 83 1013.0 2.2 SW 2.2 0.0 2.4
21:58 18.5 15.6 83 1013.0 2.2 SW 2.2 0.0 2.4
21:59 18.5 15.6 83 1012.9 1.6 SW 2.2 0.0 2.4
22:00 18.5 15.6 83 1013.1 0.7 SW 2.2 0.0 2.4
22:01 18.4 15.5 83 1013.1 0.0 SW 2.2 0.0 2.4
22:02 18.4 15.5 83 1013.2 0.7 N 2.2 0.0 2.4
22:04 18.4 15.5 83 1013.3 1.6 N 3.1 0.0 2.4
22:05 18.4 15.5 83 1013.1 0.7 N 3.1 0.0 2.4
22:06 18.4 15.5 83 1013.2 1.6 N 3.1 0.0 2.4
22:07 18.4 15.5 83 1013.2 1.6 N 3.1 0.0 2.4
22:08 18.4 15.5 83 1013.0 3.8 NNW 3.8 0.0 2.4
22:09 18.4 15.5 83 1013.2 3.8 NW 3.8 0.0 2.4
22:10 18.4 15.5 83 1013.2 4.5 NW 4.5 0.0 2.4
22:11 18.4 15.5 83 1013.3 3.8 N 4.5 0.0 2.4
22:12 18.4 15.5 83 1013.3 3.1 NW 4.5 0.0 2.4
22:13 18.4 15.5 83 1013.3 3.1 NW 4.5 0.0 2.4
22:14 18.4 15.5 83 1013.2 3.1 N 4.5 0.0 2.4
22:15 18.4 15.5 83 1013.1 2.2 NW 4.5 0.0 2.4
22:16 18.4 15.5 83 1013.3 3.8 NE 4.5 0.0 2.4
22:18 18.4 15.5 83 1013.5 3.8 NE 4.5 0.0 2.4
22:19 18.4 15.5 83 1013.2 3.8 NE 4.5 0.0 2.4
22:20 18.4 15.5 83 1013.1 3.8 N 4.5 0.0 2.4
22:21 18.4 15.5 83 1013.1 3.8 N 3.8 0.0 2.4
22:22 18.4 15.5 83 1013.3 2.2 N 3.8 0.0 2.4
22:23 18.4 15.5 83 1013.2 3.8 N 3.8 0.0 2.4
22:24 18.4 15.7 84 1013.2 5.4 NW 5.4 0.0 2.4
22:25 18.4 15.7 84 1013.2 3.8 N 5.4 0.0 2.4
22:26 18.4 15.7 84 1013.1 4.5 N 5.4 0.0 2.4
22:27 18.4 15.7 84 1013.1 4.5 N 5.4 0.0 2.4
22:28 18.4 15.7 84 1013.2 5.4 N 5.4 0.0 2.4
22:29 18.4 15.7 84 1013.4 5.4 N 5.4 0.0 2.4
22:30 18.4 15.7 84 1013.4 3.8 NE 5.4 0.0 2.4
22:32 18.4 15.7 84 1013.2 3.8 NE 5.4 0.0 2.4
22:33 18.4 15.7 84 1013.1 3.8 NE 5.4 0.0 2.4
22:34 18.3 15.6 84 1013.4 4.5 NE 5.4 0.0 2.4
22:35 18.3 15.6 84 1013.2 3.8 NE 5.4 0.0 2.4
22:36 18.3 15.6 84 1013.1 3.8 NE 5.4 0.0 2.4
22:37 18.3 15.6 84 1013.2 3.8 NE 5.4 0.0 2.4
22:38 18.3 15.6 84 1013.3 4.5 N 5.4 0.0 2.4
22:39 18.3 15.6 84 1013.3 5.4 N 5.4 0.0 2.4
22:40 18.3 15.6 84 1013.3 6.9 NE 6.9 0.0 2.4
22:41 18.3 15.6 84 1013.3 6.9 N 6.9 0.0 2.4
22:42 18.3 15.6 84 1013.5 6.9 N 6.9 0.0 2.4
22:43 18.3 15.6 84 1013.4 4.5 N 6.9 0.0 2.4
22:44 18.3 15.6 84 1013.4 4.5 NE 6.9 0.0 2.4
22:46 18.3 15.6 84 1013.2 4.5 NE 6.9 0.0 2.4
22:47 18.3 15.6 84 1013.2 6.0 N 6.9 0.0 2.4
22:48 18.3 15.6 84 1013.4 6.0 NE 6.9 0.0 2.4
22:49 18.3 15.6 84 1013.4 6.0 NE 6.9 0.0 2.4
22:50 18.3 15.6 84 1013.3 1.6 N 6.9 0.0 2.4
22:51 18.3 15.6 84 1013.4 2.2 N 6.9 0.0 2.4
22:52 18.3 15.6 84 1013.3 3.1 N 6.9 0.0 2.4
22:53 18.3 15.6 84 1013.2 3.1 N 6.0 0.0 2.4
22:54 18.3 15.6 84 1013.5 3.1 N 6.0 0.0 2.4
22:55 18.3 15.6 84 1013.2 3.1 N 6.0 0.0 2.4
22:56 18.3 15.6 84 1013.3 3.1 N 6.0 0.0 2.4
22:57 18.3 15.7 85 1013.3 3.1 N 6.0 0.0 2.4
22:59 18.3 15.7 85 1013.3 2.2 W 3.1 0.0 2.4
23:00 18.3 15.7 85 1013.3 3.8 N 3.8 0.0 2.4
23:01 18.3 15.7 85 1013.3 3.8 N 3.8 0.0 2.4
23:02 18.3 15.7 85 1013.3 3.8 N 3.8 0.0 2.4
23:03 18.3 15.7 85 1013.3 3.8 N 3.8 0.0 2.4
23:04 18.3 15.7 85 1013.3 3.8 N 3.8 0.0 2.4
23:05 18.3 15.7 85 1013.4 3.8 N 3.8 0.0 2.4
23:06 18.3 15.7 85 1013.3 3.8 N 3.8 0.0 2.4
23:07 18.3 15.7 85 1013.3 5.4 N 5.4 0.0 2.4
23:08 18.3 15.7 85 1013.4 5.4 N 5.4 0.0 2.4
23:09 18.3 15.7 85 1013.4 4.5 NE 5.4 0.0 2.4
23:10 18.3 15.7 85 1013.1 4.5 W 5.4 0.0 2.4
23:11 18.3 15.7 85 1013.3 3.8 N 5.4 0.0 2.4
23:12 18.3 15.7 85 1013.2 2.2 NE 5.4 0.0 2.4
23:13 18.3 15.7 85 1013.2 3.1 NE 5.4 0.0 2.4
23:14 18.3 15.7 85 1013.3 3.1 NE 5.4 0.0 2.4
23:15 18.3 15.7 85 1013.4 3.1 NE 5.4 0.0 2.4
23:17 18.3 15.7 85 1013.3 3.1 NE 5.4 0.0 2.4
23:18 18.3 15.7 85 1013.2 3.1 NE 5.4 0.0 2.4
23:19 18.3 15.7 85 1013.4 5.4 N 5.4 0.0 2.4
23:20 18.3 15.7 85 1013.2 5.4 N 5.4 0.0 2.4
23:21 18.3 15.7 85 1013.1 3.1 E 5.4 0.0 2.4
23:22 18.3 15.7 85 1013.4 3.1 E 5.4 0.0 2.4
23:23 18.3 15.7 85 1013.2 3.1 NE 5.4 0.0 2.4
23:25 18.3 15.7 85 1013.3 3.1 NE 5.4 0.0 2.4
23:26 18.2 15.6 85 1013.2 3.1 NE 5.4 0.0 2.4
23:27 18.2 15.6 85 1013.1 3.1 NE 5.4 0.0 2.4
23:28 18.2 15.6 85 1013.2 4.5 E 5.4 0.0 2.4
23:29 18.2 15.6 85 1013.3 4.5 NNW 5.4 0.0 2.4
23:30 18.2 15.6 85 1013.0 4.5 NNW 5.4 0.0 2.4
23:31 18.2 15.6 85 1013.3 5.4 NE 5.4 0.0 2.4
23:32 18.2 15.6 85 1013.1 5.4 NE 5.4 0.0 2.4
23:33 18.2 15.6 85 1013.3 2.2 NW 5.4 0.0 2.4
23:34 18.2 15.6 85 1013.3 3.8 NW 5.4 0.0 2.4
23:35 18.2 15.6 85 1013.2 3.8 N 5.4 0.0 2.4
23:36 18.2 15.6 85 1013.3 3.8 N 5.4 0.0 2.4
23:37 18.2 15.6 85 1013.0 4.5 NE 5.4 0.0 2.4
23:39 18.2 15.6 85 1013.0 4.5 NNW 5.4 0.0 2.4
23:40 18.2 15.6 85 1013.2 3.1 NE 5.4 0.0 2.4
23:41 18.2 15.6 85 1013.4 3.1 NE 5.4 0.0 2.4
23:42 18.2 15.6 85 1013.1 2.2 NNW 4.5 0.0 2.4
23:43 18.2 15.6 85 1013.1 4.5 NE 4.5 0.0 2.4
23:44 18.2 15.6 85 1013.2 4.5 N 4.5 0.0 2.4
23:45 18.2 15.6 85 1013.1 5.4 E 5.4 0.0 2.4
23:46 18.2 15.6 85 1013.0 4.5 NNW 5.4 0.0 2.4
23:47 18.2 15.6 85 1013.1 4.5 NNW 5.4 0.0 2.4
23:48 18.2 15.6 85 1013.1 3.8 N 5.4 0.0 2.4
23:49 18.2 15.6 85 1013.1 3.8 N 5.4 0.0 2.4
23:50 18.1 15.5 85 1013.2 4.5 W 5.4 0.0 2.4
23:51 18.1 15.5 85 1013.0 4.5 W 5.4 0.0 2.4
23:53 18.1 15.5 85 1013.1 2.2 N 5.4 0.0 2.4
23:54 18.1 15.5 85 1013.3 3.1 N 5.4 0.0 2.4
23:55 18.1 15.5 85 1013.1 2.2 NNW 4.5 0.0 2.4
23:56 18.1 15.5 85 1013.1 2.2 NE 4.5 0.0 2.4
23:57 18.1 15.5 85 1013.1 2.2 NE 4.5 0.0 2.4
23:58 18.1 15.5 85 1013.0 2.2 NNW 4.5 0.0 2.4
23:59 18.1 15.5 85 1013.2 0.7 NNW 4.5 0.0 2.4

 

 

UK - WEATHER STATION TOPSITES - UK World Weather Websites

Copyright © Carnkie Weather 2009 - 2020.